GFSFLT2_prec_radar_000.txt.gz
Reflectivity
-20 -20 -20 -20 -20 -20 -20 -20 -20 -20 -20 7 -19 -20 -20 -20 -20 -20 -5 2 3 14 -13 0 16 1 23
-20 -20 -20 -20 -20 -20 -20 -20 -20 -20 -20 -20 -20 -20 -20 -20 -19 -20 -20 -17 -6 -10 14 -2 6 2 26
-12 -11 -12 -20 -15 -20 -8 -20 -20 -20 -20 -20 -16 -9 -2 15 -20 -20 -20 -20 -13 -20 -2 3 -18 -4 -2
13 9 -8 -20 -20 -20 -20 -20 3 -14 -20 -18 -13 -2 -20 -3 -9 -15 -2 7 -16 -13 -9 -17 13 -20 -16
15 5 -20 -15 -7 -14 -6 -20 -20 -13 14 6 16 18 -19 -20 -20 -20 -12 -1 12 -2 -20 -20 -20 -11 5
13 7 -3 -20 -6 -10 13 6 9 1 16 -20 -20 -12 -20 -20 -16 6 -19 17 -8 -3 -20 -20 -20 -20 -20
9 4 4 6 13 14 17 16 8 -0 14 -7 -2 9 -8 3 -20 -20 -16 -6 17 3 -20 -20 -20 -20 -4
0 11 15 15 12 9 15 15 13 14 13 15 10 4 0 -1 14 16 27 30 -4 -20 -20 -20 -13 7 -3
4 -4 -20 -0 -7 14 12 17 6 11 6 22 11 14 15 -18 -11 7 6 -20 -20 -20 -20 -20 -2 -9 8
-20 -20 -20 -7 -14 9 12 14 11 9 18 24 -8 19 7 11 17 18 14 6 -8 -10 3 -19 -18 -15 -20
-12 -2 1 4 8 8 8 11 13 9 16 28 12 14 11 9 -6 -3 -13 26 27 10 12 15 20 17 -3
4 6 6 5 9 3 1 2 5 9 1 13 14 13 7 7 4 5 16 33 17 12 4 20 22 24 27
10 8 7 4 7 7 6 -3 1 2 -0 12 4 2 5 5 3 9 7 23 25 19 14 16 16 26 22
9 8 6 4 8 6 9 8 14 12 17 4 4 8 7 3 6 12 3 22 20 20 25 29 31 31 31
9 6 7 8 7 4 5 14 14 13 6 8 12 3 19 8 10 11 4 18 18 7 17 15 23 20 26
7 8 9 7 7 4 11 16 9 8 5 7 9 8 11 9 7 8 11 17 16 17 18 4 14 28 28
6 9 6 10 11 16 13 9 10 10 8 7 7 11 10 6 13 16 13 17 16 12 -10 1 1 14 28

GFSFLT2_prec_radar_003.txt.gz
Reflectivity
-20 -20 -20 -20 -20 -20 -20 -20 -20 -20 -20 -20 -14 -2 -20 -20 -20 -20 -18 -7 11 4 -1 20 25 22 29
-20 -20 -20 -20 -20 -20 -20 -20 -20 -20 -20 -20 -20 -20 15 -20 -13 -1 -20 -19 1 -11 -20 -18 14 14 6
-20 -20 -20 -20 -20 -20 -20 -20 -20 -20 -20 -20 -20 -20 -19 -8 -0 -2 19 11 -20 -20 -20 -15 -20 -9 13
7 7 -7 -20 1 3 -20 -20 -20 -20 -20 -20 -6 -20 22 19 -12 -15 -20 -20 -20 -20 13 -10 3 -20 8
9 6 -8 -20 -20 -20 -16 -7 -20 -20 -19 -20 1 10 -20 -20 -20 -20 -20 -20 -20 -1 3 -12 18 -20 7
21 9 -13 -20 -20 3 9 11 3 -12 8 -20 -16 -13 -20 -20 -20 19 15 11 7 -20 -17 6 12 -12 -20
-7 -20 -20 6 3 11 10 4 -2 -17 11 -12 9 1 9 -20 -20 1 8 11 3 0 8 4 -7 19 -3
-2 -16 6 5 10 1 6 13 9 8 8 13 -2 18 -16 -18 -20 -18 -20 -1 13 13 10 -17 -12 -10 -20
4 -12 -12 -16 -12 7 6 12 8 0 -20 9 6 -7 -5 -20 -20 -20 20 4 -5 -20 -20 -20 -20 -18 -20
-6 -20 -20 -20 4 4 7 12 9 -10 -20 8 3 11 13 -19 -20 -19 -20 -20 12 8 6 -17 -13 -20 -20
-20 -20 -13 4 3 3 5 8 11 7 -20 8 7 5 10 3 12 11 -3 0 26 28 29 7 8 10 -20
-8 2 5 3 -2 -13 -20 -20 -11 2 -10 -7 13 3 3 1 -12 16 -11 3 32 33 23 18 16 19 19
6 5 3 -6 -19 -13 -20 -20 -20 -20 -19 -19 12 12 -17 -14 -8 14 11 -1 28 30 9 25 10 -5 9
3 3 1 -6 -6 -5 8 -13 2 -6 7 -4 -15 -3 -15 -20 -10 -19 12 -4 15 20 27 29 23 13 13
4 -0 0 -3 -13 1 3 14 12 4 -9 -17 -12 -12 -14 16 -10 -2 -10 -3 16 22 34 30 32 37 36
-2 -1 2 6 5 6 5 13 11 7 7 7 -4 -3 -7 10 8 -5 1 14 17 26 28 13 18 33 37
5 7 10 1 11 -0 12 7 10 7 7 13 0 8 7 -1 11 13 15 17 12 1 0 -3 14 30 30

GFSFLT2_prec_radar_006.txt.gz
Reflectivity
-20 -20 -20 -20 -20 -20 -20 -20 -20 -20 -20 -20 -20 -20 -20 -20 -20 -20 6 -1 6 12 -20 -3 16 12 21
-20 -20 -20 -20 -20 -20 -20 -20 -19 -20 -20 -20 -20 -20 -20 -20 -20 -20 6 14 20 22 21 12 -9 -18 9
-20 -20 -20 -20 -20 -20 -20 -20 -20 -20 -20 -20 -15 -20 -15 -1 -20 -16 22 13 20 -15 -4 -16 -16 8 10
-8 -4 -20 -20 23 -1 -20 -20 -20 -20 -20 -10 -6 -20 -9 -4 -20 -20 -20 -20 -2 10 14 -20 6 -7 10
3 14 7 7 -20 -20 -20 -20 -20 -20 -12 -20 -20 -20 -20 -20 -20 -20 -20 12 12 23 17 6 -20 -20 -3
6 -20 -20 -20 -19 -20 -20 -20 5 -20 -20 -20 -20 -20 -20 8 -15 18 21 -20 -20 -2 2 10 -7 -20 -20
-20 -20 -3 -12 -1 -11 6 13 -10 -20 -12 3 -2 5 -20 -20 -16 1 16 9 -20 4 14 9 4 7 4
-1 3 2 7 -2 0 -9 -20 -17 -0 5 10 -20 -20 -20 2 10 12 6 11 22 17 3 10 7 5 -5
13 4 -20 -20 -12 5 1 7 -20 -16 -11 4 -20 -13 -7 7 10 8 28 8 -10 -20 -5 -1 -6 -6 -20
-20 -20 -20 -20 3 4 6 12 3 -14 -20 -19 -18 -8 1 8 10 9 0 -13 -20 -3 0 -0 4 -1 -19
-20 -20 -20 -4 6 4 1 7 14 5 -20 7 9 -20 -13 -19 8 -2 -16 -20 -19 -20 -15 20 22 9 -20
-20 -15 3 -15 -20 -20 -20 -20 -19 6 5 2 16 1 5 10 -17 -13 -14 -16 -7 13 34 34 23 21 -5
6 -2 -2 -20 -20 -20 -20 -14 -5 7 6 15 9 4 -20 -20 -20 -20 -5 4 12 26 32 21 21 22 20
3 -6 -20 -20 -20 -20 -4 -20 -20 -18 -3 -5 -20 -20 -20 -20 -18 -17 5 7 -2 24 11 19 19 12 6
2 -10 -20 -20 -20 -20 -14 -17 -10 10 1 -19 -20 -20 -20 -19 -1 -14 8 8 10 14 22 16 26 28 25
-20 -18 -20 -4 -7 -9 1 3 -3 -1 7 0 -19 -20 -20 -20 -0 -2 12 0 8 17 32 9 26 35 28
-9 -9 -10 -20 -19 -20 -20 -3 -20 -11 -3 8 -14 -20 -20 -17 10 26 7 6 15 15 24 25 23 33 34

GFSFLT2_prec_radar_009.txt.gz
Reflectivity
-20 -20 -20 -20 -20 -20 -20 -20 -20 -20 -19 -12 -20 -20 -20 -20 -20 4 -2 -20 -20 -19 -19 20 24 25 7
-20 -20 -20 -20 -20 -20 -20 -20 -20 -19 -20 -20 -20 -20 -20 -19 -20 14 18 -14 -3 -11 18 22 13 21 24
-16 -20 -20 -14 1 -20 -9 -20 -20 -20 -20 -20 -20 -20 -14 2 -20 -16 -0 17 -20 -7 9 20 -12 19 24
-14 8 7 8 -20 -20 -20 -20 -20 -20 -20 -20 -2 6 -20 -20 -20 -20 -20 -20 19 5 -20 18 13 11 17
20 -6 -20 -20 -20 -20 -6 -20 -20 -20 -2 -20 -20 -20 -20 -20 -20 1 -2 18 4 21 23 23 7 -20 14
11 -20 -20 -20 -20 -19 14 10 -20 -13 -2 -20 -20 -20 -20 -20 5 10 -20 -20 -3 16 20 20 -20 -20 -2
-20 -20 -20 -20 16 15 -20 2 6 -20 4 -20 -9 -20 -20 -7 -20 -9 2 7 11 5 3 -20 -20 -10 4
-10 -4 10 7 -4 -12 -11 1 -18 -14 -4 -20 -20 -20 -20 -20 -19 -12 3 18 16 20 29 10 16 -17 -8
14 6 -15 -20 -13 2 6 6 -6 -20 -20 -20 -20 -20 -20 -19 -20 -19 1 11 7 -14 1 3 -12 -20 -20
-20 -20 -20 -20 2 -1 3 11 -8 -7 -20 6 -10 -20 6 -6 -19 -20 -20 -20 5 16 14 -0 9 -1 -14
-20 -20 -20 -4 -20 -20 -10 14 16 8 -20 13 10 -18 -14 -20 -20 -20 -9 -18 -12 5 1 6 6 8 -10
-20 -13 -18 -20 -20 -19 -10 -12 -14 9 3 3 17 -5 -12 -6 -20 -20 -20 -20 6 14 19 26 21 15 12
-1 -20 -20 -20 -20 -20 -19 -4 5 9 4 4 10 1 2 -8 -20 -20 2 -4 15 21 24 25 23 31 17
-7 -20 -20 -20 -20 -20 -9 -20 -3 -2 9 9 6 4 -13 -20 -20 -20 -0 21 16 2 21 22 15 14 3
-20 -20 -20 -20 -20 -20 -15 -16 -12 1 -10 -18 -15 -12 -20 -20 -17 7 8 0 9 18 13 24 7 23 11
-20 -20 -4 -4 -18 -20 -17 2 -1 -16 -16 -20 -18 -20 -20 -17 11 2 6 11 20 30 29 22 19 28 24
-17 -3 -16 -20 -12 -20 -20 -8 -20 -20 -19 -19 -12 -17 -19 -20 -20 26 14 12 21 30 25 25 20 29 24

GFSFLT2_prec_radar_015.txt.gz
Reflectivity
-20 -20 -20 -20 -20 -20 -20 -14 15 -3 -20 -20 -20 -19 -20 -16 20 -1 -16 -12 -11 3 5 -1 2 18 21
-20 -20 -20 -20 -20 -20 5 -18 -5 -20 -20 -20 -20 -6 -2 15 -8 1 -17 -15 -20 17 22 19 17 19 18
-20 -20 -20 -20 -20 -1 -20 -20 -20 -20 -20 -20 -20 -16 -10 -18 -9 6 20 17 8 14 10 8 -5 -18 -18
1 -6 -20 -5 -10 -20 -20 -20 -20 -20 -20 -7 -20 -20 -20 -20 -20 -20 -19 -10 -8 -1 1 -1 9 -18 -20
-19 12 -13 -20 -20 -20 -20 -20 -9 -15 -20 -20 -20 -20 -20 -20 -20 -20 -5 5 2 4 -2 15 16 15 17
-1 -20 -20 -20 -20 0 6 -20 -20 -20 -14 -11 -20 -20 -20 -20 -20 -7 4 5 6 11 13 12 10 20 23
-20 -20 -16 -2 10 -17 -20 -15 -20 -20 7 -1 -20 -20 -20 -20 -20 -20 -5 6 -11 5 9 14 14 13 11
-17 -4 1 -16 -19 -9 -13 1 -14 -20 4 7 -20 -20 -20 -20 -20 -13 -20 4 3 4 10 10 11 18 18
11 -4 -20 -18 -17 12 -7 -19 -20 -20 -15 -19 -20 -20 -20 -20 -20 -20 -10 4 1 -1 5 5 8 11 7
-20 -20 -20 -20 -20 -15 8 12 -12 -19 -20 7 -10 -17 8 -5 -20 -20 -20 -20 -20 -16 -0 4 3 16 17
-20 -20 -20 -20 -20 -20 -18 12 13 3 -20 14 10 -20 -4 -19 -20 -20 -20 -20 -20 -20 -14 11 21 20 18
-20 -20 -20 -20 -20 -20 -20 -20 2 15 4 3 17 3 2 -9 -20 -20 -20 -18 -12 -20 7 8 26 31 25
-20 -20 -20 -20 -20 -20 -20 -20 2 12 4 -19 -6 -10 6 10 -1 -20 -2 5 6 10 8 12 18 21 20
-20 -20 -20 -20 -20 -20 -20 -20 -20 -20 -18 -17 4 4 1 -12 9 -3 -4 18 -4 -11 5 14 28 33 29
-20 -20 -20 -20 -20 -20 -20 -20 -20 -16 -20 -20 -20 -5 -10 3 1 -5 4 -1 12 16 -0 -8 3 26 29
-20 -20 -20 -20 -20 -20 -20 -20 -10 -20 -20 -20 -20 -16 -14 -11 1 3 8 13 26 22 20 3 1 8 21
-20 -20 -15 -20 -20 -20 -20 -20 -20 -20 -20 -19 -20 -20 -20 -20 -3 15 13 23 11 14 26 16 15 10 3

GFSFLT2_prec_radar_018.txt.gz
Reflectivity
-20 -20 -20 -20 -20 -20 -20 -20 -20 13 12 15 8 -20 -20 -5 4 14 10 19 19 20 17 17 18 19 19
-20 -20 -20 -20 -20 -20 -20 7 -20 -20 -20 -20 -20 -10 -17 3 19 18 16 18 16 3 -5 -20 18 -18 17
-20 -20 -20 -17 -18 -20 -20 -20 -20 -20 -20 -20 -20 -20 -17 2 5 12 12 19 19 12 15 18 18 17 18
-18 5 11 -20 -20 -20 -20 -20 -20 -20 -20 -20 -8 -20 -20 -20 -20 -20 -20 -9 -1 3 1 5 -1 -6 -20
-9 -20 -20 -20 -20 -20 -20 -20 -20 -17 -20 -20 -20 -20 -20 -20 -20 -20 -15 4 -20 -1 10 -2 15 14 13
-20 -20 -20 -20 -20 -19 2 -20 -20 -20 -20 -14 -20 -20 -20 -20 -20 -11 2 5 3 8 14 13 13 16 16
-20 -20 -20 -20 -1 -17 -20 -20 -20 -20 -14 -7 -20 -20 -20 -20 -20 -20 -3 4 5 5 10 15 15 14 13
-20 -11 2 -15 -20 -19 -8 -2 -20 -20 -19 6 -20 -20 -20 -20 -20 -20 -20 2 3 8 10 10 11 9 7
9 -2 -20 -20 -15 8 -13 -20 -20 -20 -20 -20 -20 -20 -20 -17 -20 -20 -20 -3 -3 4 4 5 8 11 7
-20 -20 -20 -20 -20 -20 -20 8 -19 -14 -20 6 -15 -15 9 -20 -20 -20 -20 -20 -20 -4 2 3 6 9 10
-20 -20 -20 -20 -20 -20 -20 8 13 3 -20 14 5 -20 -7 -7 -20 -17 -14 -19 -17 -14 2 8 16 11 12
-20 -20 -20 -20 -20 -20 -20 -20 -14 15 3 -12 14 2 2 -18 -20 -19 2 7 2 -11 -1 -4 3 19 23
-20 -20 -20 -20 -20 -20 -20 -20 -17 4 -10 -20 1 -12 3 12 7 -18 15 1 4 0 -9 -16 -8 4 7
-20 -20 -20 -20 -20 -20 -20 -20 -20 -20 -7 -20 -15 0 7 -5 17 8 12 16 -10 -8 16 21 18 27 28
-20 -20 -20 -20 -20 -20 -20 -20 -20 -20 -20 -20 -19 4 2 -10 -18 -4 -10 6 9 21 13 -3 18 33 26
-20 -20 -20 -20 -20 -20 -20 -20 -20 -20 -20 -20 -20 -20 -16 -0 -20 -2 -16 -17 4 20 0 11 19 22 16
-20 -20 -19 -20 -20 -20 -20 -20 -20 -20 -20 -20 -20 -20 -20 -20 -20 2 10 -8 -13 12 20 16 23 17 -4

GFSFLT2_prec_radar_024.txt.gz
Reflectivity
-20 -20 -20 -20 -20 -20 -20 -20 -20 -20 -20 -20 -20 -3 -20 -2 4 5 -8 -10 -2 18 18 18 18 19 19
-20 -20 -20 -20 -20 -20 -20 -20 -20 -20 -20 -20 -20 -20 -7 3 1 -15 -18 -4 11 6 15 17 18 17 18
-20 -20 -8 -0 -16 -20 -20 -20 -20 -20 -20 -20 -20 -20 -20 -20 -20 -20 -20 -11 3 4 3 -13 1 -13 9
3 -1 10 -19 -20 -20 -20 -20 -20 -20 -20 -20 -20 -20 -20 -20 -20 -20 -19 -20 -1 8 -6 -2 -6 -1 16
10 12 -20 -20 -20 -20 -13 -9 -9 -18 -20 -20 -20 -20 -20 -20 -20 -20 -20 -20 -14 4 12 11 12 12 5
15 5 -20 -20 -20 -3 5 12 -1 -20 -20 -20 -20 -20 -20 -20 -20 -20 -20 -4 3 1 8 9 12 12 15
4 -20 -20 -20 -11 11 10 7 4 -20 -3 -20 -20 -20 -20 -20 -20 -20 -20 -20 -2 6 8 9 10 9 11
-20 -20 -2 8 11 1 7 3 -2 -16 -20 -20 -20 -20 -20 -20 -20 -20 -20 -20 -18 4 12 11 9 10 9
-20 4 6 -16 -15 -3 5 9 -20 -20 -20 -6 -20 -9 -20 -20 -20 -20 -20 -20 -20 -19 2 14 17 14 11
1 -20 -20 -20 -20 -11 5 9 -18 -19 -20 -9 3 5 -13 -20 -20 -20 -20 -20 -20 -20 -20 -4 4 19 20
-20 -20 -20 -20 -20 -20 -15 7 7 -18 -20 6 6 -15 6 -20 -20 -20 -20 -20 -20 -20 -20 -15 -2 16 26
-20 -20 -9 -8 -15 -4 -9 3 4 -12 -17 -11 11 -2 -9 -16 -20 -20 -20 -20 -20 -20 -17 -6 5 3 8
2 2 1 1 -4 -8 1 1 0 -5 -15 -20 5 0 6 2 -11 -20 -20 -20 -14 2 15 16 26 25 22
-2 -3 -18 3 -0 2 4 -20 -16 -20 -20 -20 -2 6 7 5 -20 -14 -20 -20 4 10 -9 3 1 23 24
-4 -15 -8 -8 -7 -1 2 5 -13 -20 -20 -20 -20 -9 6 5 -20 -20 -20 -4 3 -11 11 15 -14 26 8
-15 -20 -20 -6 -12 1 -4 -20 -20 -20 -20 -20 2 2 -20 -20 -20 -3 -4 1 -16 -17 6 20 7 -20 2
-19 -11 -19 3 -19 -20 -20 -20 -20 -20 -20 4 5 7 7 -20 -18 10 6 -15 -4 -14 1 22 17 17 25

GFSFLT2_prec_radar_027.txt.gz
Reflectivity
-20 -20 -20 -20 -20 -20 -20 -20 -20 -20 -20 -7 -20 -20 -6 -11 -20 3 -16 7 10 0 -2 16 19 18 19
-20 -20 -20 -20 -20 -20 -20 -20 -20 -20 -20 -19 -20 -20 -20 -2 -11 -7 -15 3 7 12 15 12 8 20 19
-20 -20 -20 -20 -15 -12 -20 -20 -20 -20 -20 -20 -20 -20 -20 -6 -20 -18 -0 -1 -20 -15 2 -1 -18 -10 -12
-20 -20 -13 0 -8 -20 -20 -20 -20 -20 -20 -20 -20 -20 -20 -20 -20 -20 -20 -12 -15 -20 3 -4 6 11 6
-2 -0 10 -20 -20 -20 -20 -20 -20 -20 -19 -20 -20 -20 -20 -20 -20 -20 -20 -20 -4 5 3 8 9 12 12
12 8 -20 -20 -20 -20 -20 -20 -1 -20 -20 -20 -20 -20 -20 -20 -20 -20 -20 -20 -20 1 4 6 9 10 8
2 1 -17 -20 -20 -20 -8 9 -20 -20 -20 -17 -20 -20 -20 -20 -20 -20 -20 -20 -20 -20 -17 -4 4 9 12
-20 -20 -20 -20 1 19 -8 -18 -20 -20 -13 -5 -20 -20 -20 -20 -20 -20 -20 -20 -20 -20 -20 -15 -1 4 12
-20 -13 1 -1 -17 -20 -20 -8 -20 -20 -20 -20 -20 -20 -20 -20 -20 -20 -20 -20 -20 -20 -20 -20 -0 2 5
-20 -20 -20 -20 -20 -20 -14 8 -19 -20 -20 -10 -18 -14 -7 -20 -20 -20 -20 -20 -20 -20 -20 -20 -6 18 18
-20 -20 -20 -20 -19 -14 -20 -2 12 -8 -20 1 5 -20 -3 -20 -20 -20 -20 -20 -20 -20 -20 -20 -2 11 29
-20 -20 -13 -11 -15 -4 -14 -18 -19 -13 -20 -17 15 -4 -4 -7 -20 -19 -20 -20 -20 -20 -20 -20 1 10 13
-18 -13 -19 -8 -20 -14 -6 -6 -0 -18 -20 -20 -11 -6 -0 -5 -19 -20 -20 -20 -20 -20 -20 -13 5 6 15
-13 -20 -20 -20 -20 -9 -20 -5 -20 -20 -20 -20 -19 -1 9 -13 -16 -17 -20 -19 -20 -20 -14 -16 -20 -20 14
-6 -20 -20 -20 -20 -20 -20 -20 -9 -20 -20 -20 -20 -20 -20 -20 7 -19 -20 -20 -20 -20 2 -7 -20 -20 8
-20 -20 -20 -20 -20 -20 -20 -20 -19 -20 -20 -20 -20 -20 -20 -7 8 4 -11 -20 -20 -19 -14 8 -17 -20 -1
-20 -20 -20 -20 -19 -20 -20 -20 -20 -20 -20 -20 -11 -15 2 -20 -20 13 14 -9 -20 -18 2 -20 -20 -20 11

GFSFLT2_prec_radar_030.txt.gz
Reflectivity
-20 -20 -20 -20 -20 -20 -20 -20 -20 -20 -20 -20 -20 -16 -20 -18 -3 -6 -7 8 11 6 10 14 16 21 20
-20 -20 -20 -20 -20 -20 -20 -20 -20 -20 -20 -20 -20 -20 -20 -17 -20 -18 -2 3 5 7 10 7 5 11 13
-20 -20 -20 -20 -20 -20 -20 -20 -20 -20 -20 -20 -20 -20 -20 -20 -20 -16 -5 -20 -19 -13 -9 1 7 11 12
-20 -20 -20 -20 -18 -15 -20 -20 -20 -20 -20 -20 -20 -20 -20 -20 -20 -20 -20 -11 -20 -20 -7 4 10 5 9
-6 -7 -20 1 -20 -20 -20 -20 -20 -20 -20 -20 -20 -20 -20 -20 -20 -20 -20 -8 -1 9 7 9 10 6 8
0 9 -20 -20 -20 -20 -20 -20 -20 -20 -20 -20 -20 -20 -20 -20 -20 -20 -20 -16 3 9 11 5 1 4 12
-7 -20 -20 -20 -20 -20 -20 -15 -16 -20 -20 -20 -20 -20 -20 -20 -20 -20 -20 -20 -7 -7 9 11 6 11 13
-13 -20 -20 -20 -13 8 2 -20 -20 -20 -20 -20 -20 -20 -20 -20 -20 -20 -20 -20 -17 -20 -12 -10 6 10 14
-20 -14 3 -4 -18 -20 -20 -20 -20 -20 -20 -20 -20 -20 -20 -20 -20 -20 -20 -20 -20 -20 -20 -19 6 10 8
-20 -20 -20 -20 -20 -20 -20 -19 -20 -19 -20 -0 -12 -19 -13 -20 -20 -20 -20 -20 -20 -20 -20 -20 -20 -20 -19
-20 -20 -20 -20 -20 -20 -16 -6 2 -17 -20 6 8 -19 -3 -20 -20 -20 -20 -20 -20 -20 -20 -20 -20 -5 -1
-20 -20 -20 -20 -20 -20 -20 -20 -20 -20 -20 -20 12 -6 1 -7 -20 -20 -20 -20 -20 -20 -20 -20 -20 -7 5
-20 -20 -20 -20 -20 -20 -20 -20 -20 -20 -20 -20 -15 -20 -5 -2 -20 -20 -20 -20 -20 -20 -20 -20 -20 -9 -20
-20 -20 -20 -20 -20 -20 -20 -20 -20 -20 -20 -20 -20 -12 4 -20 -16 -18 -20 -20 -20 -20 -20 -20 -20 -20 -20
-20 -20 -20 -20 -20 -20 -20 -19 -11 -20 -20 -20 -20 -20 -20 -20 -7 -19 -20 -20 -20 -20 -20 -13 -20 -15 -20
-20 -20 -20 -20 -20 -20 -20 -20 -20 -20 -20 -20 -20 -20 -20 -3 13 12 1 -20 -20 -20 -20 -10 -13 -20 -20
-20 -20 -20 -20 -20 -20 -20 -20 -20 -20 -20 -20 -20 -9 -1 -20 -4 15 19 7 -20 -20 -20 -20 -18 -20 -20

GFSFLT2_prec_radar_036.txt.gz
Reflectivity
-20 -20 -20 -20 -20 -20 -20 -20 -20 -20 -20 -13 -20 -20 0 -20 -20 -12 -15 -10 9 13 14 11 15 19 20
-20 -20 -20 -20 -20 -20 -20 -20 -20 -20 -20 -20 -20 -20 -20 -20 3 -20 8 9 -19 -20 1 4 -6 7 11
-20 -20 -20 -20 -20 -20 -20 -20 -20 -20 -20 -20 -20 -20 -20 -3 3 -0 -20 -20 -20 -18 -20 -20 -5 10 10
-20 -20 -20 -20 -20 -20 -20 -20 -20 -20 -20 -20 -20 -20 -20 -20 -20 -20 -20 -20 -20 -4 0 -4 8 10 9
-20 -20 -20 -20 -20 -20 -20 -20 -20 -20 -20 -20 -20 -20 -20 -20 -20 -20 -20 -19 1 7 7 8 9 9 11
-20 -20 -20 -20 -20 -20 -20 -20 -20 -20 -20 -20 -20 -20 -20 -20 -20 -20 -20 -17 1 1 9 7 10 10 11
-20 -20 -20 -20 -20 -20 -20 -19 -20 -20 -20 -20 -20 -20 -20 -20 -20 -20 -20 -20 -4 2 5 8 10 9 11
-20 -20 -20 -16 2 13 2 -20 -20 -20 -20 -20 -20 -20 -20 -20 -20 -20 -20 -20 -20 -5 1 -5 8 3 7
-20 -3 4 4 -19 -20 -20 -20 -20 -20 -20 -20 -20 -20 -20 -20 -20 -20 -20 -20 -20 -20 -20 -3 3 11 9
-20 -20 -20 -20 -20 -20 -20 -20 -20 -19 -20 -20 -20 -20 -20 -20 -20 -20 -20 -20 -20 -20 -20 -20 -2 -16 -20
-20 -20 -20 -20 -20 -20 -20 -20 -20 -20 -20 -1 -1 -20 -9 -20 -20 -20 -20 -20 -20 -20 -20 -20 -15 -1 -19
-20 -20 -20 -20 -20 -20 -20 -20 -20 -20 -20 -20 8 -20 -17 -15 -20 -20 -20 -20 -20 -20 -20 -20 -20 -13 2
-20 -20 -20 -20 -20 -20 -20 -20 -20 -20 -20 -20 -16 -20 -13 -12 -20 -20 -20 -20 -20 -20 -20 -20 -20 -20 -20
-20 -20 -20 -20 -20 -20 -20 -20 -20 -20 -20 -20 -20 -20 -19 -20 -14 -16 -20 -20 -20 -20 -20 -20 -20 -20 -20
-20 -20 -20 -20 -20 -20 -20 -20 -20 -20 -20 -20 -20 -20 -20 -20 -4 -14 -20 -20 -20 -20 -20 -20 -20 -20 -20
-20 -20 -20 -20 -20 -20 -20 -20 -20 -20 -20 -20 -20 -20 -20 -3 7 3 -9 -20 -20 -19 -14 3 -19 -20 -20
-20 -20 -20 -20 -20 -20 -20 -20 -20 -20 -20 -20 -19 -0 7 -20 3 12 20 14 -13 -20 -20 -20 -20 -20 -20

GFSFLT2_prec_radar_039.txt.gz
Reflectivity
-20 -20 -20 -20 -20 -20 -20 -20 -20 -20 -20 -20 -20 -8 -20 7 -15 -18 -20 8 8 2 12 14 17 15 13
-20 -20 -20 -20 -20 -20 -20 -20 -20 -20 -20 -20 -11 -19 -20 -20 2 5 2 10 8 10 10 8 -3 -11 6
-20 -20 -20 -20 -20 -20 -20 -20 -20 -20 -20 -20 -20 -20 -17 1 4 -5 -13 -19 -19 -20 -20 -20 -20 -20 -20
-20 -20 -20 -20 -20 -20 -20 -20 -20 -20 -20 -20 -20 -20 -20 -20 -20 -20 -20 -20 -20 -1 3 -7 -17 -9 -5
-20 -20 -20 -20 -20 -20 -20 -20 -20 -20 -20 -20 -20 -20 -20 -20 -20 -20 -20 -20 -12 2 5 8 7 11 8
-20 -20 -20 -20 -20 -20 -20 -20 -20 -20 -20 -20 -20 -20 -20 -20 -20 -20 -20 -20 -6 5 5 11 11 11 12
-20 -20 -20 -20 -20 -20 -20 -20 -20 -20 -20 -20 -20 -20 -20 -20 -20 -20 -20 -20 -8 -0 4 10 11 9 8
-20 -20 -20 -20 -17 5 11 -9 -20 -20 -20 -20 -20 -20 -20 -20 -20 -20 -20 -20 -20 -11 0 7 7 8 5
-20 -19 -17 -1 -16 -20 -20 -20 -20 -20 -20 -20 -20 -20 -20 -20 -20 -20 -20 -20 -20 -20 -18 -5 1 5 -2
-20 -20 -20 -20 -20 -20 -20 -20 -20 -20 -20 -20 -20 -20 -20 -20 -20 -20 -20 -20 -20 -20 -20 -20 -3 -20 -20
-20 -20 -20 -20 -20 -20 -20 -20 -20 -20 -20 -7 -4 -20 -2 -20 -20 -20 -20 -20 -20 -20 -20 -20 -20 -2 -20
-20 -20 -20 -20 -20 -20 -20 -20 -20 -20 -20 -20 8 -18 -7 -9 -20 -20 -20 -20 -20 -20 -20 -20 -20 -20 0
-20 -20 -20 -20 -20 -20 -20 -20 -20 -20 -20 -20 -15 -20 -4 -7 -20 -20 -20 -20 -20 -20 -20 -20 -20 -20 -20
-20 -20 -20 -20 -20 -20 -20 -20 -20 -20 -20 -20 -20 -20 -19 -20 -11 -17 -20 -20 -20 -20 -20 -20 -20 -20 -20
-20 -20 -20 -20 -20 -20 -20 -20 -20 -20 -20 -20 -20 -20 -20 -19 5 -16 -20 -20 -20 -20 -20 -20 -20 -20 -20
-20 -20 -20 -20 -20 -20 -20 -20 -20 -20 -20 -20 -20 -20 -12 12 14 7 -7 -20 -20 -20 -20 7 -7 -9 -12
-20 -20 -20 -20 -20 -20 -20 -20 -20 -20 -20 -20 -17 -4 2 -19 13 19 21 15 -1 -12 -20 -20 -20 -20 -20

GFSFLT2_prec_radar_042.txt.gz
Reflectivity
-19 -20 -20 -20 -20 -20 -20 -20 -20 -20 -20 -20 -20 -8 -1 -1 -12 -17 -16 6 10 9 9 17 12 15 21
-20 -20 -20 -20 -20 -20 -20 -20 -20 -20 -20 -20 -20 -19 -20 -20 -20 -20 12 12 8 10 13 11 11 13 12
-20 -20 -20 -20 -20 -20 -20 -20 -20 -20 -20 -20 -20 -20 -20 -1 1 -2 -7 -7 -16 -20 -20 -20 -12 -19 -20
-20 -20 -20 -20 -20 -20 -20 -20 -20 -20 -20 -20 -20 -20 -20 -20 -20 -20 -20 -20 -3 2 -0 1 -6 -5 5
-7 -3 -20 -20 -20 -20 -20 -20 -20 -20 -20 -20 -20 -20 -20 -20 -20 -20 -20 -20 -6 1 2 6 10 11 13
-20 -20 -20 -20 -20 -20 -20 -20 -20 -20 -20 -20 -20 -20 -20 -20 -20 -20 -20 -20 -20 1 5 12 11 10 13
-20 -20 -20 -20 -20 -20 -18 -20 -20 -20 -20 -20 -20 -20 -20 -20 -20 -20 -20 -20 -20 -1 1 -3 9 8 10
-20 -20 -20 -20 -19 -11 -13 -20 -20 -20 -20 -20 -20 -20 -20 -20 -20 -20 -20 -20 -20 -20 -0 -1 3 9 8
-20 -20 -17 -18 -20 -20 -20 -20 -20 -20 -20 -20 -20 -20 -20 -20 -20 -20 -20 -20 -20 -20 -20 -20 -2 1 3
-20 -20 -20 -20 -20 -20 -20 -20 -20 -20 -20 -20 -20 -20 -20 -20 -20 -20 -20 -20 -20 -20 -20 -20 -20 -17 -20
-20 -20 -20 -20 -20 -20 -20 -20 -20 -20 -20 1 -2 -20 -15 -20 -20 -20 -20 -20 -20 -20 -20 -20 -20 -6 -20
-20 -20 -20 -20 -20 -20 -20 -20 -20 -20 -20 -20 9 -20 -13 -20 -20 -20 -20 -20 -20 -20 -20 -20 -20 -20 -12
-20 -20 -20 -20 -20 -20 -20 -20 -20 -20 -20 -20 -19 -20 -18 -19 -20 -20 -20 -20 -20 -20 -20 -20 -20 -20 -20
-20 -20 -20 -20 -20 -20 -20 -20 -20 -20 -20 -20 -20 -12 -6 -20 -20 -20 -20 -20 -20 -20 -20 -20 -20 -20 -20
-20 -20 -20 -20 -20 -20 -20 -20 -20 -20 -20 -20 -20 -20 -20 -20 -6 -19 -20 -20 -20 -20 -20 -20 -20 -20 -20
-20 -20 -20 -20 -20 -20 -20 -20 -20 -20 -20 -20 -20 -20 -20 4 11 6 -7 -20 -20 -20 -20 -0 -18 1 -5
-20 -20 -20 -20 -20 -20 -20 -20 -20 -20 -20 -20 -20 -20 -7 -20 2 15 19 10 -15 -20 -20 -20 -20 1 -6

GFSFLT2_prec_radar_045.txt.gz
Reflectivity
16 30 28 35 24 18 -0 -20 -20 -20 -20 -20 -20 -20 -20 -20 -14 -20 -20 -20 -14 -6 8 15 18 15 20
12 17 29 33 21 7 -20 -20 -20 -20 -20 -20 -20 -20 -20 -20 -4 -20 -20 -13 10 12 11 12 13 12 13
14 17 16 17 12 -6 -20 -20 -20 -20 -20 -20 -20 -20 -20 -19 -1 -3 -20 -7 -8 -16 -19 -18 -10 6 9
5 2 0 -13 -14 -17 -20 -20 -20 -20 -20 -20 -20 -20 -20 -20 -20 -20 -20 -20 -13 -1 1 8 10 7 8
-2 -9 -20 -20 -20 -20 -20 -20 -20 -20 -20 -20 -20 -20 -20 -20 -20 -20 -20 -20 -20 -3 0 5 9 10 13
-20 -20 -20 -20 -20 -20 -20 -3 -3 -20 -20 -20 -20 -20 -20 -20 -20 -20 -20 -20 -20 2 2 6 9 9 10
-20 -20 -20 -20 -20 -20 -16 2 3 -20 -20 -20 -20 -20 -20 -20 -20 -20 -20 -20 -20 -5 2 6 6 10 10
-20 -20 -20 -20 -16 -20 -7 -10 -20 -20 -20 -20 -20 -20 -20 -20 -20 -20 -20 -20 -20 -20 -3 2 7 7 9
-20 -20 -17 -18 -20 -20 -20 -20 -20 -20 -20 -20 -20 -20 -20 -20 -20 -20 -20 -20 -20 -20 -20 -20 -2 -5 4
-20 -20 -20 -20 -20 -20 -20 -20 -16 -20 -20 -20 -20 -19 -20 -20 -20 -20 -20 -20 -20 -20 -20 -20 -20 -6 -10
-20 -20 -20 -20 -20 -20 -20 -2 -12 -20 -20 -6 -20 -20 -7 -20 -20 -20 -20 -20 -20 -20 -20 -20 -20 -5 5
-20 -20 -20 -20 -20 -20 -20 -20 -20 -20 -20 -12 4 -20 -20 -20 -20 -20 -20 -20 -20 -20 -20 -20 -20 -20 -12
-20 -20 -20 -20 -20 -20 -20 -20 -20 -20 -20 -20 -20 -20 -18 -20 -20 -20 -20 -20 -20 -20 -20 -20 -20 -20 -20
-20 -20 -20 -20 -20 -20 -20 -20 -20 -20 -20 -20 -20 -20 -20 -20 -20 -20 -20 -20 -20 -20 -20 -20 -20 -20 -20
-20 -20 -20 -20 -20 -20 -20 -20 -20 -20 -20 -20 -20 -20 -20 -20 -20 -20 -20 -20 -20 -20 -20 -20 -20 -20 -20
-20 -20 -20 -20 -20 -20 -20 -20 -20 -20 -20 -20 -20 -20 -20 -20 -20 -20 -13 -20 -20 -20 -20 -12 -16 -6 -20
-20 -20 -20 -20 -20 -20 -20 -20 -20 -20 -20 -20 -20 -20 -3 -20 -17 5 8 4 4 -20 -20 -19 -20 -20 -20

GFSFLT2_prec_radar_048.txt.gz
Reflectivity
13 23 31 32 20 19 6 -5 -18 -20 -16 9 4 -19 -20 -20 -20 -20 -20 -20 -20 -5 -20 -9 18 16 19
25 22 31 32 17 -7 -9 -20 -20 -20 -20 -7 -2 -11 -20 -20 -16 -4 -19 -20 -20 4 11 14 13 12 12
2 22 13 -1 -10 -2 -4 1 4 -20 -20 -20 -20 -20 -20 -20 -20 -20 -20 -20 -20 -20 -20 -20 -20 -15 -14
-0 14 14 1 -15 -13 -19 -20 -20 -20 -20 -20 -20 -20 -20 -20 -20 -20 -20 -20 -20 -14 0 2 -8 -6 7
-10 -20 -18 -20 -15 -18 -20 -20 -20 -20 -20 -20 -20 -20 -20 -20 -20 -20 -20 -20 -20 -20 -2 2 6 7 10
-20 -16 -2 -3 -20 -20 -20 -20 -20 -20 -20 -20 -20 -20 -20 -20 -20 -20 -20 -20 -20 -3 0 0 1 10 10
-9 -16 -20 -20 -20 -19 -8 -11 -11 -20 -20 -20 -20 -20 -20 -20 -20 -20 -20 -20 -20 -20 -2 3 4 2 8
-20 -20 -20 -20 -19 -10 -5 -11 -20 -20 -20 -20 -20 -20 -20 -20 -20 -20 -20 -20 -20 -20 -14 -0 -2 -2 4
-20 -20 -20 -20 -20 -20 -20 -7 -11 -20 -20 -20 -20 -20 -20 -20 -20 -20 -20 -20 -20 -20 -20 -20 -12 -0 -2
-20 -20 -20 -20 -20 -20 -20 -1 -6 -13 -20 -20 -20 -1 -17 -20 -20 -20 -20 -20 -20 -20 -2 -20 -20 -11 -1
-20 -20 -20 -20 -20 -20 -20 -20 -13 -6 -20 -3 -13 -17 2 -20 -20 -20 -20 -20 -20 -20 -20 -20 -20 -5 3
-20 -20 -20 -20 -20 -20 -20 -20 -12 -11 -20 3 -1 -10 -13 -20 -20 -20 -20 -20 -16 -17 -9 -20 -20 -5 -1
-20 -20 -20 -20 -20 -20 -20 -5 -19 -13 -15 -18 -5 -20 -14 -20 -20 -20 -20 -20 -20 -2 -3 -18 -1 1 4
-20 -20 -20 -20 -20 -20 -10 -20 -20 -20 -20 -20 -20 -2 -20 -20 -15 -20 -20 -16 -19 -20 -1 2 1 -0 0
-20 -20 -20 -20 -20 -20 -20 -20 -12 -20 -20 -20 -14 1 -7 -11 -18 -20 -20 -20 -10 -1 -6 -9 -15 -5 -6
-20 -20 -9 -20 -20 -14 -9 -20 -18 -20 -20 -20 -11 -6 -13 -20 -16 -20 -20 -6 -8 1 3 4 -7 1 -9
-18 -5 -7 -5 -8 -13 -4 -20 -8 -20 -20 -1 0 6 3 -20 -20 -20 -2 -6 -0 5 3 3 -9 -20 -4

GFSFLT2_prec_radar_051.txt.gz
Reflectivity
-1 9 33 33 18 17 23 26 -0 -3 -19 -20 -17 -20 -20 -20 -20 -20 -20 -20 -20 -6 -20 -20 -20 -4 -6
29 38 35 30 35 33 18 -16 -20 -19 -20 -20 -20 -20 -20 -20 -20 -20 -20 -20 -20 -20 -19 -20 -11 9 13
14 12 20 25 9 -9 -6 -14 -13 -20 -20 -20 -20 -20 -20 -20 -20 -20 -20 -20 -20 -20 -20 -20 -20 -20 -20
19 12 -0 -20 -19 -19 -19 -20 -20 -20 -20 -20 -20 -20 -20 -20 -20 -20 -20 -20 -20 -15 -4 -5 -20 -20 -8
4 -19 -20 -20 -20 -20 -20 -20 -20 -20 -20 -20 -20 -20 -20 -20 -20 -20 -20 -20 -12 -16 -2 1 5 10 12
-20 -20 -20 -17 -19 -15 -20 -20 -20 -20 -20 -20 -20 -20 -20 -20 -20 -20 -20 -0 -20 -20 0 1 3 3 10
-20 -20 -20 -20 -20 -20 -20 -20 -20 -20 -20 -20 -20 -20 -20 -20 -20 -20 -20 -20 -20 -20 -20 -2 3 9 10
-20 -20 -20 -20 -20 -20 -16 -20 -20 -20 -20 -20 -20 -20 -20 -20 -20 -20 -20 -20 -20 -20 -20 -5 -1 -1 -18
-20 -20 -20 -20 -20 -20 -20 -20 -20 -20 -20 -20 -20 -20 -20 -20 -20 -20 -20 -20 -20 -20 -20 -20 -5 -5 4
-20 -20 -20 -20 -20 -20 -20 -20 -20 -20 -20 -20 -20 -19 -20 -20 -20 -20 -20 -20 -20 -20 -20 -20 -20 -20 -20
-20 -20 -20 -20 -20 -20 -20 -20 -20 -20 -20 -20 -20 -20 -8 -20 -20 -20 -20 -20 -20 -20 -20 -20 -20 -1 -20
-20 -20 -20 -20 -20 -20 -20 -20 -20 -18 -20 -11 -19 -20 -20 -20 -20 -20 -20 -20 -20 -20 -20 -20 -17 -5 -1
-20 -20 -20 -20 -20 -20 -20 -20 -20 -20 -20 -20 -20 -20 -20 -20 -20 -20 -20 -20 -20 -20 -20 -20 -4 -12 -19
-20 -20 -20 -20 -20 -20 -20 -20 -20 -20 -20 -20 -20 -19 -17 -19 -17 -20 -20 -18 -20 -20 -20 -20 -20 -20 -20
-20 -20 -20 -20 -20 -20 -20 -20 -19 -20 -20 -20 -20 -4 -9 -17 -15 -20 -20 -20 -20 -20 -19 -20 -20 -20 -20
-11 -20 -16 -20 -20 -20 -20 -20 -20 -20 -20 -20 -20 -20 -20 -20 -20 -20 -20 -20 -20 -14 -7 -3 -17 -19 -20
-20 -20 -20 -20 -19 -20 -20 -20 -20 -20 -20 -20 -20 -16 -16 -20 -20 -20 -20 -20 -20 -20 -20 -20 -20 -20 -20

GFSFLT2_prec_radar_054.txt.gz
Reflectivity
30 32 26 38 31 28 11 10 -8 12 7 1 -15 -20 -20 -20 -20 -20 -20 -20 -20 -20 -20 -20 -14 -20 -20
34 20 -18 -5 -13 -15 -19 -20 -20 -20 -20 -19 -20 -20 -20 -20 -20 -20 -20 -20 -20 -20 -1 -19 -10 -1 9
14 -4 -11 -5 -2 -16 -20 -18 -8 -20 -20 -20 -20 -20 -20 -20 -20 -20 -10 -3 -4 -2 -5 -17 -20 -20 -20
-9 14 -16 -2 -14 -20 -20 -20 -20 -20 -20 -20 -20 -20 -20 -20 -20 -20 -20 -20 -20 -15 -11 -20 -20 -16 -10
-20 -20 -20 -20 -9 -20 -20 -20 -20 -20 -20 -20 -20 -20 -20 -20 -20 -20 -20 -20 -20 -12 -15 -11 2 12 11
-20 -20 -20 -20 -20 -20 -20 -20 -20 -20 -20 -20 -20 -20 -20 -20 -20 -20 -20 -20 -20 -20 -20 -20 -20 -20 5
-20 -20 -20 -20 -20 -20 -20 -20 -20 -20 -20 -20 -20 -20 -20 -20 -20 -20 -20 -20 -20 -20 -20 -8 -1 -2 -19
-20 -20 -20 -20 -20 -20 -20 -20 -20 -20 -20 -20 -20 -20 -20 -20 -20 -20 -20 -20 -20 -20 -20 -11 -6 4 9
-20 -20 -20 -20 -20 -20 -20 -20 -20 -20 -20 -20 -20 -20 -20 -20 -20 -20 -20 -20 -20 -20 -20 -7 -3 1 7
-20 -20 -20 -20 -20 -20 -20 -20 -20 -20 -20 -20 -20 -20 -20 -20 -20 -20 -20 -20 -20 -20 -20 -20 -3 -19 -20
-20 -20 -20 -20 -20 -20 -20 -20 -20 -20 -20 -20 -20 -20 -12 -20 -20 -20 -20 -20 -20 -20 -20 -20 -20 1 -18
-20 -20 -20 -20 -20 -20 -20 -20 -20 -20 -20 -20 -20 -20 -20 -20 -20 -20 -20 -20 -20 -20 -20 -20 -20 -20 -6
-20 -20 -20 -20 -20 -20 -20 -20 -20 -20 -19 -20 -20 -20 -17 -19 -19 -20 -20 -20 -20 -20 -20 -20 -20 -20 -20
-20 -20 -20 -20 -20 -20 -20 -20 -20 -20 -20 -18 -20 -20 -17 -18 -16 -19 -20 -20 -20 -20 -20 -20 -20 -20 -20
-20 -20 -20 -20 -20 -20 -20 -20 -19 -20 -20 -20 -20 -20 -20 -20 -19 -20 -20 -20 -20 -20 -20 -20 -20 -20 -20
-20 -20 -20 -20 -20 -20 -20 -20 -20 -20 -20 -20 -20 -20 -20 -20 -20 -20 -20 -20 -20 -20 -20 -20 -20 -20 -20
-20 -20 -20 -20 -13 -20 -20 -20 -20 -20 -20 -20 -18 -19 -18 -20 -20 -20 -20 -20 -20 -20 -20 -20 -20 -20 -20

GFSFLT2_prec_radar_057.txt.gz
Reflectivity
26 23 31 31 35 19 15 10 17 17 14 7 13 14 -1 -19 -19 -20 -20 -20 -20 -20 -20 -20 -20 -20 -20
37 40 29 30 29 9 -3 7 -9 18 12 11 -12 -14 -20 -20 -20 -20 -20 -20 -20 -9 -0 -1 -3 5 -20
11 29 13 8 5 -19 -5 -1 -7 4 -4 -15 -9 -20 -20 -20 -20 -20 -20 -20 -20 -17 -16 -20 -20 -20 -20
16 13 -7 8 -8 -19 -16 -20 -16 -20 -20 -20 -20 -20 -20 -20 -20 -20 -20 -20 -20 -20 -20 -20 -20 -20 -7
6 -13 -9 -15 -17 -20 -20 -20 -20 -20 -20 -20 -20 -20 -20 -20 -20 -20 -20 -20 -20 -20 -20 -20 -20 1 13
-20 -20 -20 -20 -20 -20 -20 -20 -20 -20 -20 -20 -20 -20 -20 -20 -20 -20 -20 -20 -20 -20 -20 -20 -2 -20 -19
-20 -20 -20 -20 -20 -20 -20 -20 -20 -20 -20 -20 -20 -20 -20 -20 -20 -20 -20 -20 -20 -20 -20 0 -2 0 5
-20 -20 -20 -20 -20 -20 -20 -20 -20 -20 -20 -20 -20 -20 -20 -20 -20 -20 -20 -20 -20 -20 -20 -20 -20 -13 10
-20 -20 -20 -20 -20 -20 -20 -20 -20 -20 -20 -20 -20 -20 -20 -20 -20 -20 -20 -20 -20 -20 -20 -20 -16 -12 5
-20 -20 -20 -20 -20 -20 -20 -20 -20 -20 -20 -20 -20 -20 -20 -20 -20 -20 -20 -20 -20 -20 -20 -20 -9 -20 -20
-20 -20 -20 -20 -20 -20 -20 -20 -20 -20 -20 -20 -20 -20 -20 -20 -20 -20 -20 -20 -20 -20 -20 -20 -20 -12 -20
-20 -20 -20 -20 -20 -20 -20 -20 -20 -20 -20 -20 -20 -20 -20 -20 -20 -20 -20 -20 -20 -20 -20 -20 -20 -20 -15
-20 -20 -20 -20 -20 -20 -20 -20 -20 -20 -19 -20 -20 -20 -19 -19 -19 -20 -20 -20 -20 -20 -20 -20 -20 -20 -20
-20 -20 -20 -20 -20 -20 -20 -20 -20 -20 -20 -17 -19 -20 -18 -19 -19 -20 -20 -20 -20 -20 -20 -20 -20 -20 -20
-20 -20 -20 -20 -20 -20 -20 -20 -20 -20 -20 -20 -20 -20 -19 -20 -16 -20 -20 -20 -20 -20 -20 -20 -20 -20 -20
-20 -20 -20 -20 -20 -20 -20 -20 -20 -20 -20 -20 -20 -20 -20 -20 -2 -20 -20 -20 -20 -20 -20 -20 -20 -20 -20
-20 -20 -20 -20 -19 -20 -20 -20 -20 -20 -20 -20 -20 -19 -20 -20 -20 -20 -20 -20 -20 -20 -20 -20 -20 -20 -20

GFSFLT2_prec_radar_060.txt.gz
Reflectivity
-0 23 35 29 15 22 37 29 25 20 25 16 18 21 20 19 12 4 -10 -18 -20 -20 -20 -20 -20 -20 -20
6 2 22 16 27 26 21 20 14 16 14 3 11 21 4 -1 -19 -20 -20 -20 -20 -20 -20 -4 -20 9 -15
-15 10 -11 25 20 18 25 22 3 21 12 3 14 -17 -20 -20 -20 -20 -20 -20 -20 -8 -20 -20 -20 -14 -16
-3 -2 -6 -4 17 5 -2 2 5 -18 -20 -19 -20 -20 -20 -20 -20 -20 -20 -20 -20 -20 -20 -20 -20 -20 -20
-18 -15 -15 -13 -13 11 -4 -15 -17 -20 -20 -20 -20 -20 -20 -20 -20 -20 -20 -20 -20 -20 -20 -12 -7 1 6
-17 -20 -20 -20 -20 -20 -20 -20 -20 -20 -20 -20 -20 -20 -20 -20 -20 -20 -20 -20 -20 -20 -20 -5 -5 10 11
-20 -20 -20 -20 -20 -20 -20 -20 -20 -20 -20 -20 -20 -20 -20 -20 -20 -20 -20 -20 -20 -20 -20 -17 -15 -9 11
-20 -20 -20 -20 -20 -20 -20 -20 -20 -20 -20 -20 -20 -20 -20 -20 -20 -20 -20 -20 -20 -20 -20 -20 -20 -13 -6
-20 -20 -20 -20 -20 -20 -20 -20 -20 -20 -20 -20 -20 -20 -20 -20 -20 -20 -20 -20 -20 -20 -20 -20 -20 -20 -20
-20 -20 -20 -20 -20 -20 -20 -20 -20 -20 -20 -20 -20 -20 -20 -20 -20 -20 -20 -20 -20 -20 -20 -20 -20 -20 -20
-20 -20 -20 -20 -20 -20 -20 -20 -20 -20 -20 -20 -20 -20 -10 -20 -20 -20 -20 -20 -20 -20 -20 -20 -20 -20 -20
-20 -20 -20 -20 -20 -20 -20 -20 -20 -20 -20 -20 -19 -20 -20 -20 -20 -20 -20 -20 -20 -20 -20 -20 -20 -20 -13
-20 -20 -20 -20 -20 -20 -20 -20 -20 -20 -18 -20 -20 -20 -18 -20 -20 -20 -20 -20 -20 -20 -20 -20 -20 -20 -20
-20 -20 -20 -20 -20 -20 -20 -20 -20 -20 -20 -10 -20 -20 -17 -19 -20 -20 -20 -20 -20 -20 -20 -20 -20 -20 -20
-20 -20 -20 -20 -20 -20 -20 -20 -20 -20 -20 -20 -20 -20 -20 -19 -16 -20 -20 -20 -20 -20 -20 -20 -20 -20 -20
-20 -20 -20 -20 -20 -20 -20 -20 -20 -20 -20 -20 -20 -20 -20 -20 -20 -20 -20 -20 -20 -20 -20 -20 -20 -20 -20
-20 -20 -20 -20 -19 -20 -20 -20 -20 -20 -20 -20 -20 -20 -20 -20 -20 -20 -20 -20 -20 -20 -20 -20 -20 -20 -20

GFSFLT2_prec_radar_063.txt.gz
Reflectivity
-14 7 -9 19 6 13 11 26 27 33 24 24 10 16 18 13 15 18 15 0 3 3 -2 -1 -19 -20 -20
-20 7 -20 1 9 4 1 10 21 23 21 15 9 8 15 19 21 3 -15 -13 -4 1 -20 -20 -20 -20 -20
-20 -20 15 16 -0 14 12 18 16 21 17 14 12 5 8 4 -13 -20 -20 -20 -20 -20 -20 -20 -15 -20 -3
-20 -20 -20 -11 -16 13 -5 10 15 5 15 -7 -20 -20 -20 -20 -20 -20 -20 -20 -20 -20 -20 -20 -20 -20 -19
-20 -20 -20 -19 -19 -15 -19 -20 -20 -20 -20 -20 -20 -20 -20 -20 -20 -20 -20 -20 -20 -20 -20 -20 2 9 12
-20 -20 -20 -20 -20 -20 -20 -20 -20 -20 -20 -20 -20 -20 -20 -20 -20 -20 -20 -20 -20 -20 -20 -16 -20 -20 -8
-20 -20 -20 -20 -20 -20 -20 -20 -20 -20 -20 -20 -20 -20 -20 -20 -20 -20 -20 -20 -20 -20 -20 -9 -20 -8 2
-20 -20 -20 -20 -20 -20 -20 -20 -20 -20 -20 -20 -20 -20 -20 -20 -20 -20 -20 -20 -20 -20 -20 -20 -20 -20 -20
-20 -20 -20 -20 -20 -20 -20 -20 -20 -20 -20 -20 -20 -20 -20 -20 -20 -20 -20 -20 -20 -20 -20 -20 -20 -20 -20
-20 -20 -20 -20 -20 -20 -20 -20 -20 -20 -20 -20 -20 -20 -20 -20 -20 -20 -20 -20 -20 -20 -20 -20 -20 -20 -20
-20 -20 -20 -20 -20 -20 -20 -20 -20 -20 -20 -20 -20 -20 -11 -20 -20 -20 -20 -20 -20 -20 -20 -20 -20 -20 -20
-20 -20 -20 -20 -20 -20 -20 -20 -20 -20 -20 -20 -20 -20 -20 -20 -20 -20 -20 -20 -20 -20 -20 -20 -20 -20 -14
-20 -20 -20 -20 -20 -20 -20 -20 -20 -20 -5 -20 -20 -20 -20 -20 -20 -20 -20 -20 -20 -20 -20 -20 -20 -20 -20
-20 -20 -20 -20 -20 -20 -20 -20 -20 -20 -20 -20 -20 -19 -17 -19 -20 -20 -20 -20 -20 -20 -20 -20 -20 -20 -20
-20 -20 -20 -20 -20 -20 -20 -20 -20 -20 -20 -20 -20 -20 -20 -20 -20 -20 -20 -20 -20 -20 -20 -20 -20 -20 -20
-20 -20 -20 -19 -20 -20 -20 -20 -20 -20 -20 -20 -20 -20 -20 -20 -20 -20 -20 -20 -20 -20 -20 -20 -20 -20 -20
-20 -20 -20 -20 -19 -20 -20 -20 -20 -20 -20 -20 -20 -20 -20 -20 -20 -20 -20 -20 -20 -20 -20 -20 -20 -20 -20

GFSFLT2_prec_radar_066.txt.gz
Reflectivity
-20 -20 -20 -20 -20 -20 -7 -20 13 19 34 31 32 29 26 25 24 24 19 18 14 15 14 12 12 13 8
-20 -20 -20 -20 -20 -20 -20 -20 -6 17 10 12 19 27 23 14 17 10 6 14 -1 -8 -10 -8 -12 -19 -20
-20 -20 -20 -20 -20 -20 -20 -20 -20 -20 -13 -15 8 16 10 6 11 1 -4 -6 -18 -20 -20 -20 -20 -20 -20
-20 -20 -20 -20 -20 -20 -20 -20 -20 -20 3 -0 3 10 9 9 -2 -20 -20 -20 -20 -20 -20 -20 -20 -20 -19
-20 -20 -20 -20 -20 -20 -20 -20 -20 -20 -20 -20 -20 -20 -20 -20 -20 -20 -20 -20 -20 -20 -20 -20 -20 -20 1
-20 -20 -20 -20 -20 -20 -20 -20 -20 -20 -20 -20 -20 -20 -20 -20 -20 -20 -20 -20 -20 -20 -20 -6 6 -1 -4
-20 -20 -20 -20 -20 -20 -20 -20 -20 -20 -20 -20 -20 -20 -20 -20 -20 -20 -20 -20 -20 -20 -20 -4 -6 6 8
-20 -20 -20 -20 -20 -20 -20 -20 -20 -20 -20 -20 -20 -20 -20 -20 -20 -20 -20 -20 -20 -20 -12 -20 -20 -20 -20
-20 -20 -20 -20 -20 -20 -20 -20 -20 -20 -20 -20 -20 -20 -20 -20 -20 -20 -20 -20 -20 -20 -20 -20 -20 -20 -20
-20 -20 -20 -20 -20 -20 -20 -20 -20 -20 -20 -20 -20 -20 -20 -20 -20 -20 -20 -20 -20 -20 -20 -20 -20 -20 -20
-20 -20 -20 -20 -20 -20 -20 -20 -20 -20 -20 -20 -20 -20 -20 -20 -20 -20 -20 -20 -20 -20 -20 -20 -20 -20 -20
-20 -20 -20 -20 -20 -20 -20 -20 -20 -20 -20 -20 -20 -20 -20 -20 -20 -20 -20 -20 -20 -20 -20 -20 -20 -20 -15
-20 -20 -20 -20 -20 -20 -20 -20 -20 -20 -5 -20 -20 -20 -19 -20 -20 -20 -20 -20 -20 -20 -20 -20 -20 -20 -20
-20 -20 -20 -20 -20 -20 -20 -20 -20 -20 -20 -20 -20 -20 -20 -20 -18 -20 -20 -20 -20 -20 -20 -20 -20 -20 -20
-20 -20 -14 -13 -19 -16 -20 -20 -20 -20 -20 -20 -20 -20 -20 -20 -20 -20 -20 -20 -20 -20 -20 -20 -20 -20 -20
-20 -20 -20 -20 -20 -20 -20 -20 -20 -20 -20 -20 -20 -20 -20 -20 -20 -20 -20 -20 -20 -20 -20 -20 -20 -20 -20
-20 -20 -20 -20 -20 -20 -20 -20 -20 -20 -20 -20 -20 -20 -20 -20 -20 -20 -20 -20 -20 -20 -20 -20 -20 -20 -20

GFSFLT2_prec_radar_069.txt.gz
Reflectivity
-20 -20 -20 -20 -20 -20 -20 -20 -19 9 3 10 -3 12 21 30 28 22 23 20 25 24 27 18 19 16 11
-20 -20 -20 -20 -20 -20 -20 -20 -20 5 8 -4 -3 -20 5 13 14 9 1 -6 13 18 22 18 15 4 -17
-20 -20 -20 -20 -20 -20 -20 -20 -20 -5 1 -20 -13 -15 -20 -20 -20 -7 -10 -4 5 -3 -20 -14 -17 -20 -20
-20 -20 -20 -20 -20 -16 -20 -20 -20 -20 -20 -12 7 -7 -19 -15 -10 -15 -8 0 -16 -20 -20 -20 -20 -20 -20
-20 -20 -20 -20 -20 -20 -20 -20 -20 -20 -20 -20 -20 -19 -20 -20 -20 -20 -20 -20 -20 -20 -20 -20 -20 -20 -20
-20 -20 -20 -20 -20 -20 -20 -20 -20 -20 -20 -20 -20 -20 -20 -20 -20 -20 -20 -20 -20 -20 -20 -20 -20 -20 11
-20 -20 -20 -20 -20 -20 -20 -20 -20 -20 -20 -20 -20 -20 -20 -20 -20 -20 -20 -20 -20 -20 -20 -17 11 10 8
-20 -20 -20 -20 -20 -20 -20 -20 -20 -20 -20 -20 -20 -20 -20 -20 -20 -20 -20 -20 -20 -20 -20 -9 8 6 -1
-20 -20 -20 -20 -20 -20 -20 -20 -20 -20 -20 -20 -20 -20 -20 -20 -20 -20 -20 -20 -20 -20 -17 0 -10 -20 -20
-20 -20 -20 -20 -20 -20 -20 -20 -20 -20 -20 -20 -20 -20 -20 -20 -20 -20 -20 -20 -20 -20 -20 -20 -20 -20 -20
-20 -20 -20 -20 -20 -20 -20 -20 -20 -20 -20 1 -12 -20 -20 -20 -20 -20 -20 -20 -20 -20 -20 -20 -20 -20 -20
-20 -20 -20 -20 -20 -20 -20 -20 -20 -20 -20 -8 5 -3 -1 -9 -20 -20 -20 -20 -20 -20 -20 -20 -20 -20 -20
-20 -20 -20 -20 -20 -20 -20 -20 -18 -15 -3 -18 -17 2 1 -4 -20 -20 -19 -20 -20 -20 -20 -20 -20 -20 -20
-20 -20 -20 -20 -20 -11 -6 -9 -4 -20 -20 -20 -20 -20 -20 -6 -2 -20 -20 -20 -20 -20 -20 -20 -20 -20 -20
-20 -20 -20 -20 -20 -12 -4 -11 -3 -20 -20 -20 -20 -20 -20 -20 -20 -20 -20 -20 -20 -20 -20 -20 -20 -20 -20
-20 -20 -20 -20 -20 -20 -6 1 -6 -20 -20 -20 -20 -20 -20 -20 -20 -20 -20 -20 -20 -20 -20 -20 -20 -20 -20
-20 -20 -20 -20 -20 -20 -20 -20 -20 -20 -20 -20 -20 -20 -20 -20 -20 -20 -20 -20 -20 -20 -20 -20 -20 -20 -20

GFSFLT2_prec_radar_072.txt.gz
Reflectivity
-20 -20 -20 -20 -20 -20 -20 -20 -20 -1 1 1 11 2 -16 7 17 17 17 18 17 4 14 10 13 15 -4
-20 -20 -20 -20 -20 -20 -20 -20 -20 -19 -19 -10 -9 -19 -20 -16 10 15 17 12 -11 -20 -20 -7 -0 -16 1
-20 -20 -20 -20 -20 -20 -20 -20 -20 -20 -17 -13 4 -6 -1 -7 -20 -20 -20 -20 -20 -20 -20 -20 -20 -20 -20
-20 -20 -20 -20 -20 -20 -20 -20 -20 -20 -20 -20 -20 -20 -20 -20 -20 -20 -20 -20 -18 -14 -20 -20 -20 -20 -20
-20 -20 -20 -20 -20 -20 -20 -20 -20 -20 -20 -20 -20 -20 -20 -20 -20 -20 -20 -20 -11 -12 -20 -20 -20 -20 -20
-20 -20 -20 -20 -20 -20 -20 -20 -20 -20 -20 -20 -20 -20 -20 -20 -20 -20 -20 -20 -20 -20 -20 -20 -20 -20 -20
-20 -20 -20 -20 -20 -20 -20 -20 -20 -20 -20 -20 -20 -20 -20 -20 -20 -20 -20 -20 -20 -20 -20 -20 -20 -20 -16
-20 -20 -20 -20 -20 -20 -20 -20 -20 -20 -20 -20 -20 -20 -20 -20 -20 -20 -20 -20 -20 -20 -12 -5 -1 12 12
-20 -20 -20 -20 -20 -20 -20 -20 -20 -20 -20 -20 -20 -20 -20 -20 -20 -20 -20 -20 -20 -20 -20 -9 10 8 4
-20 -20 -20 -20 -20 -20 -20 -20 -20 -20 -20 -4 -19 -20 -20 -20 -20 -20 -20 -20 -20 -20 -20 -17 9 -17 -20
-20 -20 -20 -20 -20 -20 -20 -20 -4 -10 -17 -11 -16 -20 -12 -15 -20 -20 -20 -20 -20 -20 -20 -20 -20 -20 -20
-20 -20 -20 -20 -20 -20 -20 -20 -20 -8 -17 5 2 1 -9 -18 -18 -20 -20 -20 -20 -20 -20 -20 -20 -20 -20
-20 -20 -20 -20 -20 -20 -19 -5 -18 -10 1 -3 -0 -0 -1 0 -20 -20 -6 -20 -20 -8 -20 -20 -20 -20 -20
-20 -20 -20 -20 -20 -20 -15 -20 -15 -11 -3 -20 -20 -20 -5 -10 -6 -20 -20 -8 -19 -20 -20 -20 -20 -20 -20
-20 -20 -20 -20 -20 -20 -20 -20 -14 -8 -4 -20 -14 -10 -20 -4 1 -20 -20 -20 -20 -1 -20 -8 -20 -20 -20
-20 -20 -20 -20 -20 -20 -13 -9 -15 -20 -20 -4 -5 -20 -20 -20 -20 -20 -20 -20 -20 -10 -16 -12 -20 -20 -20
-20 -20 -20 -20 -20 -20 -20 -20 -20 -20 -20 -20 -4 -2 -4 -20 -20 -20 -20 -20 -20 -4 -19 1 -4 -20 -20

GFSFLT2_prec_radar_075.txt.gz
Reflectivity
-20 -20 -20 -20 -20 -20 -20 -20 -18 10 14 4 9 10 -12 -20 5 10 20 23 29 30 28 25 14 4 22
-20 -20 -20 -20 -20 -20 -20 -20 -20 -20 -15 4 8 12 4 -20 -20 -20 -20 10 17 22 26 21 -9 4 5
-20 -20 -20 -20 -20 -20 -20 -20 -20 -20 -20 -20 -20 -20 -20 -20 -14 -18 -20 -20 -20 9 14 -12 -20 -20 -20
-18 -20 -20 -20 -20 -20 -20 -20 -20 -20 -20 -20 -20 -20 -20 -20 -20 -15 7 4 -16 -20 -13 -14 -20 -20 -20
-20 -20 -20 -20 -20 -20 -20 -20 -20 -20 -20 -20 -20 -20 -20 -20 -20 -20 -20 -20 -20 -5 1 -19 -18 -20 -20
-20 -20 -20 -20 -20 -20 -20 -20 -20 -20 -20 -20 -20 -20 -20 -20 -20 -20 -20 -20 -20 -20 -20 -20 -20 -20 -20
-20 -20 -20 -20 -20 -20 -20 -20 -20 -20 -20 -20 -20 -20 -20 -20 -20 -20 -20 -20 -20 -20 -20 -20 -20 -20 -20
-20 -20 -20 -20 -20 -20 -20 -20 -20 -20 -20 -20 -20 -20 -20 -20 -20 -20 -20 -20 -20 -20 -20 -20 -20 -20 -20
-20 -20 -20 -20 -20 -20 -20 -20 -20 -20 -20 -20 -20 -20 -20 -20 -20 -20 -20 -20 -20 -20 -20 -14 5 13 6
-20 -20 -20 -20 -20 -20 -20 -20 -20 -20 -20 -20 -20 -20 -20 -20 -20 -20 -20 -20 -20 -20 -20 -20 -20 -20 -20
-20 -20 -20 -20 -20 -20 -20 -20 -20 -20 -20 -15 -8 -20 -20 -20 -20 -20 -20 -20 -20 -20 -20 -20 -20 -18 -20
-20 -20 -20 -20 -20 -20 -20 -20 -20 -16 -20 -12 1 2 -19 -12 -20 -20 -20 -20 -20 -20 -20 -11 -20 -20 -20
-20 -20 -20 -20 -20 -20 -17 -19 -19 -20 -20 -17 -1 -13 -15 -10 -20 -20 -20 -20 -20 -20 -20 -20 -20 -20 -20
-20 -20 -20 -20 -20 -20 -20 -20 -10 -20 -5 -20 -20 -20 -18 -20 -20 -20 -20 -20 -20 -10 -20 -20 -20 -20 -20
-20 -20 -20 -20 -20 -20 -20 -20 -20 -20 -20 -1 -20 -20 -20 -14 -20 -20 -20 -20 -20 -20 -1 -20 -20 -20 -20
-20 -20 -20 -20 -20 -20 -20 -20 -20 -20 -20 -20 -18 -20 -20 -20 -20 -20 -20 -20 -20 -14 -20 -20 -20 -20 -20
-20 -20 -20 -20 -20 -20 -20 -20 -20 -20 -20 -20 -20 -13 -20 -20 -20 -20 -20 -20 -20 -20 -20 -20 -20 -20 -20

GFSFLT2_prec_radar_078.txt.gz
Reflectivity
-20 -20 -20 -20 -20 -20 -14 -20 -20 -9 6 -14 -2 -20 -16 -20 -19 -14 9 15 18 18 21 26 31 29 28
-20 -16 -20 -20 -20 -20 -20 -20 -20 -20 -20 -20 -16 -1 -12 7 -20 -20 -7 -1 13 15 15 2 -8 7 20
-20 -20 -20 -20 -20 -20 -20 -20 -20 -20 -20 -20 -20 -20 -20 -20 -20 -20 -20 -20 -20 -14 -4 12 14 14 -0
-20 2 -20 -20 -20 -20 -20 -20 -20 -20 -20 -20 -20 -20 -20 -20 -20 -20 -20 -20 -20 -6 1 -10 -12 -10 -11
-20 -20 -20 -20 -20 -20 -20 -20 -20 -20 -20 -20 -20 -20 -20 -20 -20 -20 -20 -20 -20 -20 2 -15 -18 -20 -20
-20 -20 -20 -20 -20 -20 -20 -20 -20 -20 -20 -20 -20 -20 -20 -20 -20 -20 -20 -20 -20 -20 -20 -20 -9 3 -20
-20 -20 -20 -20 -20 -20 -20 -20 -20 -20 -20 -20 -20 -20 -20 -20 -20 -20 -20 -20 -20 -20 -20 -20 -20 -20 -20
-20 -20 -20 -20 -20 -20 -20 -20 -20 -20 -20 -20 -20 -20 -20 -20 -20 -20 -20 -20 -20 -20 -20 -20 -20 -20 -20
-20 -20 -20 -20 -20 -20 -20 -20 -20 -20 -20 -20 -20 -20 -20 -20 -20 -20 -20 -20 -20 -20 -20 -20 -20 -4 0
-20 -20 -20 -20 -20 -20 -20 -20 -20 -20 -20 -20 -20 -20 -20 -20 -20 -20 -20 -20 -20 -20 -20 -20 -20 -20 -20
-20 -20 -20 -20 -20 -20 -20 -20 -20 -20 -20 -20 -20 -20 -20 -20 -20 -20 -20 -20 -20 -20 -20 -20 -20 -20 -20
-20 -20 -20 -20 -20 -20 -20 -20 -20 -20 -20 -20 -20 -20 -20 -20 -20 -20 -20 -20 -20 -20 -20 -14 -16 -20 -18
-20 -20 -20 -20 -20 -20 -20 -20 -20 -20 -20 -20 -20 -20 -20 -19 -20 -20 -19 -20 -20 -20 -20 -20 -20 -20 -20
-20 -20 -20 -20 -20 -20 -20 -20 -20 -20 -20 -20 -20 -20 -20 -20 -20 -20 -20 -20 -20 -20 -20 -20 -20 -20 -20
-20 -20 -20 -20 -20 -20 -20 -20 -20 -20 -20 -20 -20 -20 -20 -20 -20 -20 -20 -20 -20 -20 -20 -20 -20 -20 -20
-20 -20 -20 -20 -20 -20 -20 -20 -20 -20 -20 -20 -20 -20 -20 -20 -20 -20 -20 -20 -20 -20 -20 -20 -20 -20 -20
-20 -20 -20 -20 -20 -20 -20 -20 -20 -20 -20 -20 -20 -20 -20 -20 -20 -20 -20 -20 -20 -20 -20 -20 -20 -20 -20

GFSFLT2_prec_radar_081.txt.gz
Reflectivity
-20 -20 -20 -20 -20 -20 -20 -20 -20 -20 8 11 10 -12 -19 4 -5 -3 5 7 7 12 29 32 28 11 21
-20 -19 -20 -20 -20 -20 -20 -20 -20 -20 -20 -20 -20 -17 -19 -20 -20 -20 -8 -17 16 8 6 10 9 19 -16
-20 -20 -20 -20 -20 -20 -20 -20 -20 -20 -20 -20 -20 -20 -20 -20 -20 -20 -20 -20 -20 7 2 14 14 20 12
-20 -20 -20 -20 -20 -20 -20 -20 -20 -20 -20 -20 -20 -20 -20 -20 -20 -20 -20 -20 -20 -20 -20 -7 2 7 9
-20 -20 -20 -20 -20 -20 -20 -20 -20 -20 -20 -20 -20 -20 -20 -20 -20 -20 -20 -20 -20 -20 -20 -18 -16 -8 1
-20 -20 -20 -20 -20 -20 -20 -20 -20 -20 -20 -20 -20 -20 -20 -20 -20 -20 -20 -20 -20 -20 -20 -20 -20 -20 -20
-20 -20 -20 -20 -20 -20 -20 -20 -20 -20 -20 -20 -20 -20 -20 -20 -20 -20 -20 -20 -20 -20 -20 -20 -20 -20 -20
-20 -20 -20 -20 -20 -20 -20 -20 -20 -20 -20 -20 -20 -20 -20 -20 -20 -20 -20 -20 -20 -20 -20 -20 -20 -20 -20
-20 -20 -20 -20 -20 -20 -20 -20 -20 -20 -20 -20 -20 -20 -20 -20 -20 -20 -20 -20 -20 -20 -20 -20 -20 -20 -20
-20 -20 -20 -20 -20 -20 -20 -20 -20 -20 -20 -20 -20 -20 -20 -20 -20 -20 -20 -20 -20 -20 -20 -20 -20 -20 -20
-20 -20 -20 -20 -20 -20 -20 -20 -20 -20 -20 -20 -20 -20 -20 -20 -20 -20 -20 -20 -20 -20 -20 -20 -20 -20 -20
-20 -20 -20 -20 -20 -20 -20 -20 -20 -20 -20 -20 -20 -20 -20 -20 -20 -20 -20 -20 -20 -20 -20 -20 -20 -20 -20
-20 -20 -20 -20 -20 -20 -20 -20 -20 -20 -20 -20 -20 -20 -20 -20 -20 -20 -20 -20 -20 -20 -20 -20 -20 -20 -20
-20 -11 -12 -20 -20 -20 -20 -20 -20 -20 -20 -20 -20 -20 -20 -20 -20 -20 -20 -20 -20 -20 -20 -20 -20 -20 -20
-20 -18 -16 -20 -20 -20 -20 -20 -20 -20 -20 -20 -20 -20 -20 -20 -20 -20 -20 -20 -20 -20 -20 -20 -20 -20 -20
3 -14 -20 -20 -20 -20 -20 -20 -20 -20 -20 -20 -20 -20 -20 -20 -20 -20 -20 -20 -20 -20 -20 -20 -20 -20 -20
-20 -20 -20 -20 -20 -20 -20 -20 -20 -20 -20 -20 -20 -20 -20 -20 -20 -20 -20 -20 -20 -20 -20 -20 -20 -20 -20

GFSFLT2_prec_radar_084.txt.gz
Reflectivity
-20 -20 -18 -8 -20 -20 -20 -20 -20 -17 11 9 -11 12 8 8 -20 -16 12 15 6 -5 -12 28 23 17 17
-20 7 -20 0 -20 -20 -20 -20 -20 -20 -20 -20 -20 4 -20 -20 -20 -20 -20 7 3 15 14 19 25 22 16
-20 -20 1 -2 -20 -20 -20 -20 -20 -20 -20 -20 -20 -20 -20 -20 -20 -20 -20 -20 -10 -15 19 8 11 25 16
-20 -20 -20 -20 -20 -20 -20 -20 -20 -20 -20 -20 -20 -20 -20 -20 -20 -20 -20 -20 -20 -20 -6 -11 -20 -20 -18
-20 -20 -20 -20 -20 -20 -20 -20 -20 -20 -20 -20 -20 -20 -20 -20 -20 -20 -20 -20 -20 -20 -20 -20 -20 -20 -20
-20 -20 -20 -20 -20 -20 -20 -20 -20 -20 -20 -20 -20 -20 -20 -20 -20 -20 -20 -20 -20 -20 -20 -20 -20 -20 -20
-17 -18 -20 -20 -20 -20 -20 -20 -20 -20 -20 -20 -20 -20 -20 -20 -20 -20 -20 -20 -20 -20 -20 -20 -20 -20 -20
-4 -20 -20 -20 -20 -20 -20 -20 -20 -20 -20 -20 -20 -20 -20 -20 -20 -20 -20 -20 -20 -20 -20 -20 -20 -20 -20
-20 -15 -20 -20 -20 -20 -20 -20 -20 -20 -20 -20 -20 -20 -20 -20 -20 -20 -20 -20 -20 -20 -20 -20 -20 -20 -20
-20 -20 -20 -20 -20 -20 -20 -20 -20 -20 -20 -20 -20 -20 -20 -20 -20 -20 -20 -20 -20 -20 -20 -20 -20 -20 -20
-20 -20 -20 -20 -20 -20 -20 -20 -20 -20 -20 -20 -20 -20 -20 -20 -20 -20 -20 -20 -20 -20 -20 -20 -20 -20 -20
-20 -20 -20 -20 -20 -20 -20 -20 -20 -20 -20 -20 -20 -20 -20 -20 -20 -20 -20 -20 -20 -20 -20 -20 -20 -20 -20
-20 -20 -20 -20 -20 -20 -17 1 -20 -20 -20 -20 -20 -20 -20 -20 -20 -20 -20 -20 -20 -20 -20 -20 -20 -20 -20
-20 -20 -20 -20 -19 4 -11 -16 -20 -20 -20 -20 -20 -20 -20 -20 -20 -20 -20 -20 -20 -20 -20 -20 -20 -20 -20
-20 -8 -5 -19 -8 7 -6 -20 -20 -20 -20 -20 -20 -20 -20 -20 -20 -20 -20 -20 -20 -20 -20 -20 -20 -20 -20
5 6 -17 -19 -18 -20 -20 -20 -20 -20 -20 -20 -20 -20 -20 -20 -20 -20 -20 -20 -20 -20 -20 -20 -20 -20 -20
-20 -20 -20 -20 -20 -20 -20 -20 -20 -20 -20 -20 -20 -20 -20 -20 -20 -20 -20 -20 -20 -20 -20 -20 -20 -20 -20

GFSFLT2_prec_radar_087.txt.gz
Reflectivity
11 9 0 -16 -20 -19 -20 -20 -20 -20 -20 4 -1 -20 -20 -19 1 -20 7 13 7 16 4 -12 24 13 -20
-12 -13 -18 -20 -20 -20 -20 -20 -20 -20 -20 -20 -20 -20 -18 -20 -20 -20 -7 11 12 14 18 9 25 12 13
-13 -12 -5 -4 -20 -20 -20 -20 -20 -20 -20 -20 -20 -20 -20 -20 -20 -20 -20 -20 -16 2 13 19 20 10 21
8 4 -20 -20 -20 -20 -20 -20 -20 -20 -20 -20 -20 -20 -20 -20 -20 -20 -20 -20 -19 -11 -3 11 9 13 21
-20 -20 -7 -20 -20 -20 -20 -20 -20 -20 -20 -20 -20 -20 -20 -20 -20 -20 -20 -20 -20 -20 -20 -20 7 9 -16
-20 -8 -18 -20 -20 -20 -20 -20 -20 -20 -20 -20 -20 -20 -20 -20 -20 -20 -20 -20 -20 -20 -20 -20 -20 -20 -20
-12 -18 -20 -20 -16 -20 -20 -20 -20 -20 -20 -20 -20 -20 -20 -20 -20 -20 -20 -20 -20 -20 -20 -20 -20 -20 -20
-20 -13 -14 -2 -19 -20 -20 -20 -20 -20 -20 -20 -20 -20 -20 -20 -20 -20 -20 -20 -20 -20 -20 -20 -20 -20 -20
-20 -20 -11 -19 -16 -20 -20 -20 -20 -20 -20 -20 -20 -20 -20 -20 -20 -20 -20 -20 -20 -20 -20 -20 -20 -20 -20
-19 -20 -14 -15 -20 -20 -20 -20 -20 -20 -20 -20 -20 -20 -20 -20 -20 -20 -20 -20 -20 -20 -20 -20 -20 -20 -20
-20 -16 -9 -20 -20 -20 -20 -20 -20 -20 -20 -20 -20 -20 -20 -20 -20 -20 -20 -20 -20 -20 -20 -20 -20 -20 -20
-20 -20 -14 -20 -20 -20 -20 -20 -20 -20 -20 -20 -20 -20 -20 -20 -20 -20 -20 -20 -20 -20 -20 -20 -20 -20 -20
-20 -20 -20 -20 -20 -20 -20 -20 -20 -1 6 -5 -10 -20 -20 -20 -20 -20 -20 -20 -20 -20 -20 -20 -20 -20 -20
-20 -20 -20 -20 -20 -20 -12 3 -13 -4 1 -11 -20 -20 -20 -20 -20 -20 -20 -20 -20 -20 -20 -20 -20 -20 -20
-20 -20 -20 -20 -20 -20 -20 -20 -20 -20 -20 -20 -20 -20 -20 -20 -20 -20 -20 -20 -20 -20 -20 -20 -20 -20 -20
-20 -20 -20 -20 -20 -20 -20 -20 -20 -20 -20 -20 -20 -20 -20 -20 -20 -20 -20 -20 -20 -20 -20 -20 -20 -20 -20
-20 -20 -20 -20 -20 -20 -20 -20 -20 -20 -20 -20 -20 -20 -20 -20 -20 -20 -20 -20 -20 -20 -20 -20 -20 -20 -20

GFSFLT2_prec_radar_090.txt.gz
Reflectivity
-7 -20 -6 -3 7 -5 -11 -20 -20 -20 -19 -5 -6 -20 -6 -15 -7 -17 13 14 -2 12 12 -20 -12 -20 14
-15 -19 4 5 -20 -17 -20 -20 -20 -20 -20 -20 -20 -20 -19 -20 -20 -20 -20 10 10 13 16 16 10 12 13
8 -8 -14 -9 -14 -13 -20 -20 -16 -13 -18 -20 -20 -20 -20 -20 -20 -20 -20 -18 -9 10 22 16 14 19 18
-16 6 13 2 -14 -20 -20 -9 -0 -5 -20 -20 -20 -20 -20 -20 -20 -20 -20 -20 -20 -17 13 16 21 11 -7
-20 -18 3 -19 -20 -20 -11 -18 -20 -20 -20 -20 -20 -20 -20 -20 -20 -20 -20 -20 -20 -20 0 3 4 10 13
-20 -20 -20 -20 -20 -7 -6 -20 -20 -20 -20 -20 -20 -20 -20 -20 -20 -20 -20 -20 -20 -20 -20 -20 -20 -0 -20
-20 -20 -18 14 8 -9 -20 -20 -20 -20 -20 -20 -20 -20 -20 -20 -19 -20 -20 -20 -20 -20 -20 -20 -20 -20 -20
-20 -20 -8 -6 -10 -20 -19 -20 -20 -13 -20 -20 -20 -20 -20 -20 -15 -14 -19 -20 -20 -20 -20 -20 -20 -20 -20
-3 -9 -19 -10 1 5 -20 -14 -2 -20 -20 -20 -20 -20 -20 -20 -20 -20 1 -20 -13 -20 -20 -20 -20 -20 -20
-20 -20 -20 -20 -20 -20 -11 -20 -20 -20 -20 -20 -20 -20 -20 -20 -20 -20 -20 -20 -20 -20 -20 -20 -20 -20 -20
-20 -20 -20 -20 -19 -7 -20 -20 -20 -20 -20 -20 -20 -20 -20 -20 -20 -20 -20 -20 -20 -20 -20 -20 -20 -20 -20
-20 -20 -20 -20 -20 -19 -17 -20 -20 -20 -20 -3 -2 -1 -1 -9 -20 -20 -20 -20 -20 -20 -20 -20 -20 -20 -20
-20 -20 -20 -20 -20 -20 -20 -20 -20 -20 -20 -16 -20 -20 -20 -20 -20 -20 -20 -20 -20 -20 -20 -20 -20 -20 -20
-20 -20 -20 -20 -20 -20 -20 -20 -20 -20 -20 -20 -20 -20 -20 -20 -20 -20 -20 -20 -20 -20 -20 -20 -20 -20 -20
-20 -20 -20 -20 -20 -20 -20 -20 -20 -20 -20 -20 -20 -20 -20 -20 -20 -20 -20 -20 -20 -20 -20 -20 -20 -20 -20
-20 -20 -20 -20 -20 -20 -20 -20 -20 -20 -20 -20 -20 -20 -20 -20 -20 -20 -20 -20 -20 -20 -20 -20 -20 -20 -20
-20 -20 -20 -20 -20 -20 -20 -20 -20 -20 -20 -20 -20 -20 -20 -20 -20 -20 -20 -20 -20 -20 -20 -20 -20 -20 -20

GFSFLT2_prec_radar_093.txt.gz
Reflectivity
-20 -20 -0 -1 -20 -19 9 -2 -12 -7 -20 -20 -20 -20 -15 -9 -12 -2 -20 -20 -12 6 -1 -20 -20 -20 -20
-20 -20 -19 -18 -3 15 16 -20 -16 12 -20 -20 -20 -20 -20 -17 -20 -20 -20 -20 11 17 4 3 13 -20 -20
-4 -8 4 -13 -20 -9 -2 -5 -19 -20 -20 -8 -10 -8 -4 -20 -20 -20 -20 -20 5 15 15 7 18 19 23
-14 -11 8 11 -8 0 4 -14 -20 -20 -14 -5 -19 -18 -20 -20 -20 -20 -20 -20 -20 4 16 16 7 10 6
6 10 8 5 3 -4 -20 -20 -20 -19 -19 -19 -20 -20 -20 -20 -20 -20 -20 -20 -20 -20 1 10 1 11 12
-17 -12 6 7 -20 -20 -20 -20 -20 -17 -20 -20 -20 -20 -20 -20 -20 -20 -20 -20 -20 -20 -20 -20 -18 7 7
-20 -20 -20 -20 -20 -20 -10 10 7 -6 -9 -20 -20 -20 -20 -20 -20 -19 -20 -20 -20 -20 -20 -20 -20 -20 -20
-20 -20 -20 -20 -20 -20 -16 -18 -14 -4 -20 -18 -20 -8 -20 -20 -19 -6 -12 -6 -7 -20 -20 -20 -20 -20 -20
-20 -20 -20 -20 -20 -20 -20 -20 -20 -20 -19 -20 -20 -20 -20 -20 -20 -20 -7 -15 -18 -20 -20 -20 -20 -20 -20
-20 -20 -20 -20 -20 -20 -20 -20 -18 -20 -19 -11 -20 -20 -20 -20 -20 -20 -20 -20 -20 -20 -20 -20 -20 -20 -20
-20 -20 -20 -20 -20 -20 -20 -20 -20 -13 -19 -20 -20 -20 -20 -20 -20 -20 -20 -20 -20 -20 -20 -20 -20 -20 -20
-20 -20 -20 -20 -20 -20 -20 -20 -20 -19 -20 -20 -20 -20 -20 -20 -20 -20 -20 -19 -19 -20 -20 -20 -20 -20 -20
-20 -20 -20 -20 -20 -20 -20 -20 -20 -20 -20 -20 -20 -20 -20 -20 -20 -20 -20 -20 -20 -20 -20 -20 -20 -20 -20
-20 -20 -20 -20 -20 -20 -20 -20 -20 -20 -20 -20 -20 -20 -20 -20 -20 -20 -20 -20 -20 -20 -20 -20 -20 -20 -20
-20 -20 -20 -20 -20 -20 -20 -20 -20 -20 -20 -20 -20 -20 -20 -20 -20 -20 -20 -20 -20 -20 -20 -20 -20 -20 -20
-20 -20 -20 -20 -20 -20 -20 -20 -20 -20 -20 -20 -20 -20 -20 -20 -20 -20 -20 -20 -20 -20 -20 -20 -20 -20 -20
-20 -20 -20 -20 -20 -20 -20 -20 -20 -20 -20 -20 -20 -20 -20 -20 -20 -20 -20 -20 -20 -20 -20 -20 -20 -20 -20

GFSFLT2_prec_radar_096.txt.gz
Reflectivity
-20 -20 -20 -20 -20 -18 -6 -20 7 2 -18 -20 -20 -20 -20 -0 -10 -9 5 13 11 -3 5 -2 2 7 -20
-20 -20 -20 -20 -20 -20 -15 -3 9 15 -19 -16 -20 -20 -20 -8 -4 -9 -19 -20 -9 4 8 13 11 -18 -20
-16 -20 -20 -20 -3 -20 -20 -9 -3 11 1 -5 -20 -20 -20 -2 -3 -0 -14 -20 -20 -7 19 15 2 7 13
-1 -20 -20 -20 -20 -20 -19 -17 -10 -4 -9 -20 -20 -20 -15 1 -7 -14 -20 -20 -20 -2 18 26 7 18 19
-20 -20 -20 -20 -20 -16 -18 -2 -20 -20 -20 -20 -19 -14 -20 1 -6 -20 -20 -20 -20 -20 13 11 17 19 9
-20 -20 -20 -20 -20 -13 -17 -20 -20 -20 -10 -1 -1 8 -4 -1 -20 -20 -20 -20 -20 -20 -1 7 16 13 25
-20 -20 -20 -9 -18 -20 -20 -20 -20 -20 -20 -20 -17 -4 -3 -20 -20 -20 -20 -20 -20 -20 -20 -20 6 8 9
-20 -20 -20 -20 -20 -20 -20 -20 -20 -20 -20 -20 -20 -20 -7 -19 -20 -20 -20 -20 -20 -20 -20 -20 -20 -20 -20
-20 -20 -20 -20 -20 -20 -20 -20 -20 -20 -20 -20 -20 -20 -20 -20 -20 -20 -20 -20 -20 -20 -20 -20 -20 -20 -20
-20 -20 -20 -20 -20 -20 -20 -20 -20 -20 -20 -20 -20 -20 -20 -20 -20 -20 -20 -20 -20 -20 -20 -20 -20 -20 -20
-20 -20 -20 -20 -20 -20 -20 -20 -20 -20 -20 -17 -11 -20 -20 -20 -20 -20 -20 -20 -20 -20 -20 -20 -20 -20 -20
-20 -20 -20 -20 -20 -20 -20 -20 -20 -14 -20 -20 -20 -20 -20 -20 -20 -20 -20 -20 -20 -20 -20 -20 -20 -20 -20
-20 -20 -20 -20 -20 -20 -20 -20 -20 -20 -20 -20 -20 -20 -20 -20 -20 -20 -20 -20 -20 -20 -20 -20 -20 -20 -20
-20 -20 -20 -20 -20 -20 -20 -20 -20 -20 -20 -20 -20 -20 -20 -20 -20 -20 -20 -20 -20 -20 -20 -20 -20 -20 -20
-20 -20 -20 -20 -20 -20 -20 -20 -20 -20 -20 -20 -20 -20 -20 -20 -20 -20 -20 -20 -20 -20 -20 -20 -20 -20 -20
-8 -20 -20 -20 -20 -20 -20 -20 -20 -20 -20 -20 -20 -20 -20 -20 -20 -20 -20 -20 -20 -20 -20 -20 -20 -20 -20
4 -20 -20 -20 -20 -20 -20 -20 -20 -20 -20 -20 -20 -20 -20 -20 -20 -20 -20 -20 -20 -20 -20 -20 -20 -20 -20

GFSFLT2_prec_radar_099.txt.gz
Reflectivity
-20 -20 -12 -20 -20 -20 -13 -20 -18 -10 -13 -7 -1 -20 -20 -20 -20 -20 -20 -17 4 6 7 4 13 4 -1
-20 -20 -20 -20 -20 -20 -20 -20 -20 12 8 1 -20 -20 -20 -20 -20 -20 -20 -17 -4 1 -2 4 8 9 6
-15 -20 -20 -20 -20 -20 -20 -20 -20 11 1 -3 -2 -20 -20 -20 -20 -20 -20 2 -8 2 9 9 12 -1 -13
-17 -20 -20 -20 -20 -20 -20 -20 -20 -20 8 -8 -20 -20 -20 -17 -20 -18 -15 -18 9 4 6 21 20 17 13
-20 -20 -20 -20 -20 -20 -20 -20 -20 -20 -20 -20 -20 -8 2 -9 -7 -20 -20 -11 -15 -20 -2 23 23 18 17
-20 -20 -20 -20 -20 -20 -20 -20 -20 -20 -20 -20 -20 -20 -20 -14 1 6 -20 -20 -11 -20 -9 19 3 22 11
-20 -20 -20 -20 -20 -20 -20 -20 -20 -20 -20 -20 -20 -20 -20 -20 -20 -3 1 -20 -6 -18 -20 2 -2 16 11
-20 -20 -20 -20 -20 -20 -20 -20 -20 -20 -20 -20 -20 -20 -20 -20 -20 -20 -20 -20 -20 -20 -20 -20 -18 -8 -9
-20 -20 -20 -20 -20 -20 -20 -20 -20 -20 -20 -20 -20 -20 -20 -20 -20 -20 -20 -20 -10 -20 -20 -20 -20 -20 -20
-20 -20 -20 -20 -20 -20 -20 -20 -20 -20 -20 -20 -20 -20 -20 -20 -20 -20 -20 -20 -15 -18 -20 -20 -20 -20 -20
-20 -20 -20 -20 -20 -20 -20 -20 -20 -20 -20 -20 -20 -20 -20 -20 -20 -20 -20 -20 -20 -20 -20 -20 -20 -20 -20
-20 -20 -20 -20 -20 -20 -20 -20 -20 -20 -20 -20 -20 -20 -20 -20 -20 -20 -20 -20 -20 -20 -20 -20 -20 -20 -20
-20 -20 -20 -20 -20 -20 -20 -20 -20 -20 -20 -20 -20 -20 -20 -20 -20 -20 -20 -20 -20 -20 -20 -20 -20 -20 -20
-20 -20 -20 -20 -20 -20 -20 -20 -20 -20 -20 -20 -20 -20 -20 -20 -20 -20 -20 -20 -20 -20 -20 -20 -20 -20 -20
-20 -20 -20 -20 -20 -20 -20 -20 -20 -20 -20 -20 -20 -20 -20 -20 -20 -20 -20 -20 -20 -20 -20 -20 -20 -20 -20
-20 -20 -20 -20 -20 -20 -20 -20 -20 -20 -20 -20 -20 -20 -20 -20 -20 -20 -20 -20 -20 -20 -20 -20 -20 -20 -20
-20 -20 -17 -0 -1 -20 -20 -20 -20 -20 -20 -20 -20 -20 -20 -20 -20 -20 -20 -20 -20 -20 -20 -20 -20 -20 -20

GFSFLT2_prec_radar_102.txt.gz
Reflectivity
-20 -20 -16 -2 1 -16 -20 -20 -13 -4 10 -2 6 -18 -16 -20 -20 -20 -20 -18 13 13 11 7 9 6 4
-20 -20 -20 -20 -20 -20 -20 -20 -20 7 -4 8 -13 -7 -20 -20 -20 -20 -20 -20 9 8 -0 6 -1 11 -14
-20 -20 -20 -20 -20 -20 -20 -20 -20 -7 -4 3 -2 -20 -20 -20 -20 -20 -20 -20 -9 -18 -3 17 12 4 13
-20 -20 -20 -20 -20 -20 -20 -20 -20 -20 0 -2 -7 -20 -20 -20 -20 -20 -20 -20 -20 -18 2 20 14 19 7
-20 -20 -20 -20 -20 -20 -20 -20 -20 -20 -20 -20 -20 -20 -20 -20 -20 -20 -20 -20 -20 -20 -3 16 22 12 -4
-12 -20 -20 -20 -20 -20 -20 -20 -20 -20 -20 -20 -20 -20 -20 -20 -20 -20 -20 -20 2 -1 -11 12 23 13 12
-14 -17 -20 -20 -20 -20 -20 -20 -20 -20 -20 -20 -20 -20 -20 -20 -20 8 10 -18 -20 -20 -20 -20 -12 5 -7
-20 -20 -20 -20 -20 -20 -20 -20 -20 -20 -20 -20 -20 -20 -20 -20 -20 -9 -7 -20 -18 -20 -20 -20 8 -18 -10
-20 -20 -20 -20 -20 -20 -20 -20 -20 -20 -20 -20 -20 -20 -20 -20 -20 -20 -20 -20 -20 -20 -20 -20 -20 -20 -4
-20 -20 -20 -20 -20 -20 -20 -20 -20 -20 -20 -20 -20 -20 -20 -20 -20 -20 -20 -20 -20 -20 -20 -20 -20 -20 -20
-20 -20 -20 -20 -20 -20 -20 -20 -20 -20 -20 -20 -20 -20 -20 -20 -20 -20 -20 -20 -20 -20 -20 -20 -20 -20 -20
-20 -20 -20 -20 -20 -20 -20 -20 -20 -20 -20 -20 -20 -20 -20 -20 -20 -20 -20 -20 -20 -20 -20 -20 -20 -20 -20
-20 -20 -20 -20 -20 -20 -20 -20 -20 -20 -20 -20 -20 -20 -20 -20 -20 -20 -20 -20 -20 -20 -20 -20 -20 -20 -20
-20 -20 -20 -20 -20 -20 -20 -20 -20 -20 -20 -20 -20 -20 -20 -20 -20 -20 -20 -20 -20 -20 -20 -20 -20 -20 -20
-20 -20 -20 -20 -20 -20 -20 -20 -20 -20 -20 -20 -20 -20 -20 -20 -20 -20 -20 -20 -20 -20 -20 -20 -20 -20 -20
-20 -20 -20 -20 -20 -20 -20 -20 -20 -20 -20 -20 -20 -20 -20 -20 -20 -20 -20 -20 -20 -20 -20 -20 -20 -20 -20
-20 -18 -18 -20 -20 -20 -20 -20 -20 -20 -13 -20 -20 -20 -20 -20 -20 -20 -20 -20 -20 -20 -20 -20 -20 -20 -20

GFSFLT2_prec_radar_105.txt.gz
Reflectivity
-20 -20 -20 -20 -20 -20 -20 -20 -20 -12 -11 -11 -11 -18 -20 -20 -20 -20 -20 -20 -9 13 14 10 12 13 4
-20 -20 -20 -20 -20 -20 -20 -17 -15 -3 10 1 -8 -20 -20 -20 -20 -20 -20 -20 -12 10 7 -1 10 9 11
-20 -20 -20 -20 -20 -20 -20 -4 -20 -20 -15 -1 -20 -20 -20 -20 -20 -20 -20 -20 -20 7 -4 8 17 12 10
-20 -20 -20 -20 -20 -20 -20 -20 -20 -20 1 2 -20 -20 -20 -20 -20 -20 -20 -20 5 11 -6 9 16 17 -0
-20 -20 -20 -20 -20 -20 -20 -20 -20 -20 -20 -20 -20 -20 -20 -20 -20 -20 -20 -16 12 12 -4 16 17 17 7
-20 -20 -8 -19 -20 -20 -20 -20 -20 -20 -20 -20 -20 -20 -20 -20 -20 -20 -20 -20 -20 -20 -0 9 21 10 15
-20 -20 -20 -20 -20 -20 -20 -20 -20 -20 -20 -20 -20 -20 -20 -20 -20 -10 -20 -20 -20 -20 -20 -11 10 -0 4
-20 -20 -20 -20 -20 -20 -20 -20 -20 -20 -20 -20 -20 -20 -20 -20 -20 -20 -20 -20 -20 -20 -20 -20 -5 13 -6
-20 -20 -20 -20 -20 -20 -20 -20 -20 -20 -20 -20 -20 -20 -20 -20 -20 -20 -20 -20 -20 -20 -20 -20 -20 -12 -7
-20 -20 -20 -20 -20 -20 -20 -20 -20 -20 -20 -20 -20 -20 -20 -20 -20 -20 -20 -20 -20 -20 -20 -20 -20 -20 -20
-20 -20 -20 -20 -20 -20 -20 -20 -20 -20 -20 -20 -20 -20 -20 -20 -20 -20 -20 -20 -20 -20 -20 -20 -20 -20 -20
-20 -20 -20 -20 -20 -20 -20 -20 -20 -20 -20 -20 -20 -20 -20 -20 -20 -20 -20 -20 -20 -20 -20 -20 -20 -20 -20
-20 -20 -20 -20 -20 -20 -20 -20 -20 -20 -20 -20 -20 -20 -20 -20 -20 -20 -20 -20 -20 -20 -20 -20 -20 -20 -20
8 6 -17 -20 -20 -20 -20 -20 -20 -20 -20 -20 -20 -20 -20 -20 -20 -20 -20 -20 -20 -20 -20 -20 -20 -20 -20
14 -10 -20 -20 -20 -20 -20 -20 -20 -20 -20 -20 -20 -20 -20 -20 -20 -20 -20 -20 -20 -20 -20 -20 -20 -20 -20
-18 -20 -20 -20 -20 -20 -20 -20 -20 -20 -20 -20 -20 -20 -20 -20 -20 -20 -20 -20 -20 -20 -20 -20 -20 -20 -20
-20 -20 -20 -20 -20 -20 -20 -20 -20 -20 -20 -20 -20 -20 -14 -7 -20 -20 -20 -20 -20 -20 -20 -20 -20 -20 -20

GFSFLT2_prec_radar_108.txt.gz
Reflectivity
-20 -20 -20 -20 -20 -20 -20 -20 -20 -20 -20 -20 -20 -20 -20 -20 -20 -20 -20 -20 -20 -20 15 15 11 14 14
-20 -20 -20 -20 -20 -20 -20 -20 -20 -20 -20 -20 -20 -20 -20 -20 -20 -20 -20 -20 -20 -20 12 3 2 14 19
-20 -20 -20 -20 -20 -20 -20 -20 -20 -20 -20 8 -20 -20 -20 -20 -20 -20 -20 -20 -19 7 13 -3 6 2 16
-20 -20 -20 -20 -20 -20 -20 -20 -20 -20 -20 -20 -7 -16 -2 -20 -20 -20 -20 -20 -3 -1 12 -16 14 20 10
-20 -20 -20 -20 -20 -20 -20 -20 -20 -20 -20 -20 -20 -20 -20 -20 -20 -20 -20 -20 -20 -12 -1 9 9 14 9
25 -20 -20 -20 -20 -20 -20 -20 -20 -20 -20 -20 -20 -20 -20 -20 -20 -20 -20 -20 -20 -20 -20 11 13 19 11
1 -3 -20 -20 -20 -9 -20 -20 -20 -20 -20 -20 -20 -20 -20 -20 -20 -20 -20 -20 -20 -20 -20 -15 13 17 0
-20 -20 -20 -20 -20 -20 -20 -20 -20 -20 -20 -20 -20 -20 -20 -20 -20 -20 -20 -20 -20 -20 -20 -20 -1 10 11
-20 -20 -20 -20 -16 -20 -20 -20 -20 -20 -20 -20 -20 -20 -20 -20 -20 -20 -20 -20 -20 -20 -20 -20 -20 2 -1
-20 -20 -20 -20 -20 -20 -20 -20 -20 -20 -20 -20 -20 -20 -20 -20 -20 -20 -20 -20 -20 -20 -20 -20 -20 -20 -20
-20 -20 -20 -20 -20 -20 -20 -20 -20 -20 -20 -20 -20 -20 -20 -20 -20 -20 -20 -20 -20 -20 -20 -20 -20 -20 -20
-20 -20 -20 -20 -20 -20 -20 -20 -20 -20 -20 -20 -20 -20 -20 -20 -20 -20 -20 -20 -20 -20 -20 -20 -20 -20 -20
-11 3 -18 -20 -20 -20 -20 -20 -20 -20 -20 -20 -20 -20 -20 -20 -20 -20 -20 -20 -20 -20 -20 -20 -20 -20 -20
23 21 -4 -20 -8 -0 0 -4 -3 -20 -20 -20 -20 -20 -20 -20 -20 -20 -20 -20 -20 -20 -20 -20 -20 -20 -20
29 28 21 7 17 17 15 -15 -20 -20 -20 -20 -20 -20 -20 -20 -20 -20 -20 -20 -20 -20 -20 -20 -20 -20 -20
26 27 23 18 15 5 -7 -20 -20 -20 -20 -20 -20 -20 -20 -20 -20 -20 -20 -20 -20 -20 -20 -20 -20 -20 -20
26 24 23 26 1 -20 -20 -20 -20 -20 -20 -20 -20 -20 -20 -20 -20 -20 -20 -20 -20 -20 -20 -20 -20 -20 -20

GFSFLT2_prec_radar_111.txt.gz
Reflectivity
3 -14 -20 -20 -20 -18 -20 -20 -20 -20 -20 -20 -20 -20 -20 -20 -20 -20 -20 -20 -20 -20 -20 12 13 16 9
-6 -5 -12 -20 -20 -20 -20 -20 -20 -20 -20 -20 -20 -20 -20 -20 -20 -20 -20 -20 -20 -20 2 15 11 5 -1
24 -13 -20 -20 -20 -20 -20 -20 -20 -20 -20 -20 -20 -20 -20 -20 -20 -20 -20 -20 -20 -20 -11 15 -3 -1 13
29 23 4 -7 8 -9 -20 -20 -20 -20 -20 -20 -20 -20 -20 -20 -20 -20 -20 -20 -20 -20 -13 3 -8 3 13
39 30 25 33 26 13 -1 6 -16 -20 -20 -20 -20 -20 -20 -20 -20 -20 -20 -20 -20 -20 -20 -4 4 15 12
22 42 24 36 30 15 -20 -20 -20 -20 -16 -20 -20 -20 -20 -20 -20 -20 -20 -20 -20 -20 4 -16 6 10 2
9 22 -3 32 33 21 15 -6 -20 -20 -20 -20 -20 -20 -20 -20 -20 -20 -20 -20 -20 -20 -20 5 -20 -20 -13
24 30 15 5 -17 -11 -10 2 -6 -17 -20 -20 -20 -20 -20 -20 -20 -20 -20 -20 -20 -20 -20 -20 -20 -18 -2
-20 -18 1 -20 -20 -20 -20 -20 -20 -19 -20 -20 -20 -20 -20 -20 -20 -20 -20 -20 -20 -20 -20 -20 -20 -18 -8
12 29 -20 -19 -20 -20 -20 -20 2 -20 -20 -20 -20 -20 -20 -20 -20 -20 -20 -20 -20 -20 -20 -20 -20 -20 -20
-8 -20 -20 10 -20 -20 -20 -20 -20 -20 -20 -20 -20 -20 -20 -20 -20 -20 -20 -20 -20 -20 -20 -20 -20 -20 -20
5 -14 -7 -10 -20 -20 -20 -20 -20 -20 -20 -20 -20 -20 -20 -20 -20 -20 -20 -20 -20 -20 -20 -20 -20 -20 -20
12 -13 -7 -3 19 -20 -20 -20 -20 -20 -17 -20 -20 -20 -20 -20 -20 -20 -20 -20 -20 -20 -20 -20 -20 -20 -20
25 18 26 24 17 5 -18 2 -20 -19 -3 -15 -20 -20 -20 -20 -20 -20 -20 -20 -20 -20 -20 -20 -20 -20 -20
20 20 23 20 16 18 19 20 -19 -6 3 -2 -20 -20 -20 -20 -20 -20 -20 -20 -20 -20 -20 -20 -20 -20 -20
15 19 22 11 7 17 17 16 18 17 12 1 0 -20 -20 -20 -20 -20 -20 -20 -20 -20 -20 -20 -20 -20 -20
21 21 17 16 20 20 24 28 17 -2 -0 6 -19 -20 -20 -20 -20 -20 -20 -20 -20 -20 -20 -20 -20 -20 -20